GEFSCGP_500_meanwind_000.txt.gz
Wind_Speed
7 6 7 13 16 21 26 29 31 38 44 42 44 45 45 44 43 40 36 34 33 34 34 35 36 38 38 35 34 28 25 24 26 27 26 25 25 24 23 24 26 24 21 20
8 6 7 8 10 13 18 22 25 35 40 41 43 43 42 39 35 31 29 29 30 32 34 36 37 38 37 36 33 28 27 27 26 23 21 20 20 19 19 21 21 18 16 17
6 8 5 4 5 6 11 16 20 25 29 29 32 32 32 31 28 27 28 30 31 34 36 36 37 38 36 35 31 28 27 25 22 21 21 19 17 17 18 19 18 17 17 17
3 7 6 5 8 10 8 16 15 17 19 18 25 22 21 27 26 27 28 29 31 35 38 37 37 37 33 30 28 28 30 28 24 24 23 21 20 21 21 21 20 19 17 16
6 7 9 8 11 11 11 14 13 14 15 16 17 18 15 24 26 28 31 33 36 38 41 38 34 31 29 29 32 34 34 30 27 26 27 26 25 25 26 27 26 24 22 21
5 4 6 9 11 10 11 11 11 13 13 10 14 11 10 20 20 22 26 31 34 35 37 33 30 28 28 30 32 33 33 32 29 28 29 28 30 31 31 32 32 30 27 24
7 10 9 7 7 11 13 12 9 8 9 12 17 10 16 20 20 21 24 27 27 29 29 30 29 23 26 30 32 33 33 33 32 32 31 30 32 34 34 35 36 35 32 27
5 7 12 8 6 8 10 10 8 8 10 12 14 9 17 18 19 20 21 24 25 26 28 30 32 31 34 36 36 35 36 35 37 38 36 35 35 37 35 34 35 34 34 31
7 9 13 9 6 7 8 9 10 11 11 11 9 12 18 23 23 23 23 25 27 29 31 32 32 35 37 38 38 39 39 40 44 44 43 42 41 40 38 35 33 32 32 30
5 6 9 8 7 7 9 11 10 10 10 10 12 15 21 20 24 27 29 32 33 35 37 38 38 37 38 41 44 45 46 49 51 51 50 48 45 43 40 37 37 36 32 29
5 6 9 11 11 13 14 15 13 13 15 17 16 20 24 23 25 27 30 34 37 40 41 42 44 44 43 45 48 50 52 54 55 56 56 55 53 50 44 39 36 35 33 28
8 9 10 12 15 15 16 18 18 18 20 23 26 28 29 30 32 33 35 37 39 40 42 44 46 48 49 50 52 55 58 60 61 61 61 60 61 58 52 46 39 38 33 26
12 14 15 16 20 22 21 22 22 23 25 27 28 32 35 37 38 39 41 42 43 44 46 47 50 52 53 55 55 57 59 62 65 66 65 66 65 64 61 54 46 40 35 33
15 16 18 19 20 23 25 26 27 28 29 29 30 39 40 41 42 43 43 44 46 46 49 51 53 54 58 59 57 56 61 68 72 71 75 77 74 71 65 59 54 45 37 39
17 17 19 20 21 24 27 27 28 31 32 34 34 38 41 43 44 45 44 47 47 48 51 55 60 63 68 64 64 63 67 65 62 67 72 76 62 60 70 68 63 50 51 54
19 19 20 21 23 26 30 30 31 33 34 36 37 38 41 46 49 51 52 54 57 59 62 65 68 71 74 76 76 75 76 77 70 69 73 64 61 65 71 70 67 66 77 77
20 21 23 24 27 28 31 32 34 34 33 36 41 46 50 52 55 58 60 63 65 68 73 77 80 82 84 85 85 83 81 88 88 87 85 86 86 80 76 78 79 79 78 74
20 22 23 24 26 26 28 31 34 37 38 43 48 52 55 58 61 65 69 73 76 79 82 83 84 84 83 80 77 73 69 68 69 67 64 71 80 87 84 80 83 81 80 72
23 24 24 24 26 29 30 34 39 43 45 49 53 56 60 64 67 70 75 80 82 82 79 75 70 65 61 55 46 40 36 34 34 37 39 39 43 51 60 67 70 74 78 75
24 24 26 28 29 32 36 39 42 47 51 55 59 62 66 70 72 74 79 79 74 66 59 52 45 41 38 38 41 44 41 39 37 37 36 37 37 36 37 41 50 57 64 68
23 24 26 29 31 35 38 41 44 49 54 58 62 65 69 74 79 80 74 63 53 44 38 36 38 40 43 46 48 49 50 50 47 45 46 46 39 34 35 35 37 41 48 58
26 28 30 32 34 39 42 44 47 52 57 62 66 70 76 81 80 71 56 44 38 35 37 40 43 47 51 52 51 51 51 50 49 48 49 48 43 37 35 33 31 31 33 41
30 32 35 36 37 41 45 49 52 57 61 66 71 76 83 81 69 55 43 36 37 40 44 47 48 48 49 51 52 50 48 49 52 52 49 48 48 42 38 36 31 26 24 27
34 36 38 40 41 43 47 50 54 60 66 72 77 82 82 68 53 43 36 37 42 46 48 48 47 48 48 49 52 55 53 53 54 52 51 51 48 48 45 40 33 26 23 25
37 39 41 44 47 48 50 54 59 64 70 76 81 80 69 54 44 38 39 43 47 49 49 51 54 54 51 51 52 52 54 56 58 53 52 54 54 54 47 43 35 26 24 26
38 41 43 44 46 49 52 57 62 67 73 78 82 73 55 46 41 42 45 47 49 50 52 55 57 54 49 48 49 49 52 56 53 49 48 48 48 45 45 45 41 30 28 28

GEFSCGP_500_meanwind_006.txt.gz
Wind_Speed
3 1 1 2 8 12 13 11 10 10 17 24 26 23 22 30 34 33 37 43 46 46 48 50 46 39 37 39 40 41 39 38 40 41 41 37 34 32 29 27 25 24 23 22
7 7 5 8 7 1 5 10 12 15 20 24 27 30 28 30 38 38 38 39 42 45 47 46 37 33 33 36 39 41 41 40 41 41 39 36 35 32 29 26 25 24 22 21
6 9 11 9 6 6 7 11 15 17 20 23 24 23 19 18 26 32 32 36 38 35 39 36 33 32 36 38 39 42 43 43 42 40 39 38 37 35 32 29 27 25 24 22
4 8 13 10 8 8 9 14 17 18 19 17 14 16 14 16 24 31 34 34 28 28 31 21 22 29 36 40 41 43 43 42 39 38 37 35 33 31 30 28 27 26 24 22
5 9 10 9 9 10 12 13 12 11 11 10 9 11 13 17 23 28 32 34 34 34 32 31 29 32 36 39 40 42 36 33 33 32 33 30 28 27 27 27 26 25 24 24
1 8 10 9 8 10 11 10 7 10 15 20 18 11 17 20 24 30 34 35 37 35 33 31 29 31 35 37 38 36 31 30 32 32 33 31 29 27 27 29 29 28 28 27
8 2 6 12 12 9 8 8 8 12 19 22 17 6 16 18 21 26 30 33 34 33 31 30 30 32 35 37 37 37 36 35 35 36 37 37 34 31 30 31 31 32 33 33
6 5 4 12 13 11 10 8 10 14 15 19 21 15 21 25 24 26 29 33 36 38 37 36 36 38 40 41 42 42 42 42 42 42 42 42 41 39 38 37 36 36 37 38
11 6 8 12 11 12 12 10 11 14 12 11 17 23 31 29 25 28 34 38 40 42 44 44 44 44 45 47 48 49 50 50 50 50 50 49 49 48 47 47 46 44 43 42
6 6 5 8 11 15 18 17 16 15 14 15 17 30 33 29 29 35 39 39 41 44 48 50 50 51 51 52 53 54 56 56 56 57 57 57 57 56 55 54 54 54 53 50
6 7 7 8 11 11 15 17 18 18 17 19 19 30 32 35 36 39 42 43 45 49 51 53 54 55 56 56 57 58 59 60 61 61 61 61 61 62 62 62 61 61 60 58
10 11 10 10 17 13 12 20 22 23 22 22 22 31 34 36 37 40 44 47 51 53 54 55 56 57 58 59 59 60 61 62 63 64 64 64 63 63 64 65 66 66 65 63
11 12 12 12 18 20 19 20 22 24 25 26 27 34 37 39 41 43 46 49 53 56 58 61 63 63 64 64 65 65 66 67 67 67 67 68 68 68 68 68 69 71 70 68
13 14 14 13 13 15 18 20 22 24 27 30 32 38 44 43 44 47 51 55 58 61 63 64 65 65 67 68 69 70 71 73 74 74 74 74 75 75 75 74 74 75 75 72
17 16 16 15 14 15 18 21 23 27 30 33 36 40 49 50 52 54 56 59 62 65 68 70 72 74 76 77 77 77 77 77 77 77 77 78 79 80 80 81 81 81 79 74
19 18 17 17 14 18 22 23 26 31 35 39 42 44 50 53 55 58 61 64 68 71 74 77 79 80 80 78 76 72 67 63 59 57 56 57 59 62 66 72 78 81 82 81
20 20 19 17 15 17 24 26 31 35 39 44 47 48 50 54 58 61 64 68 72 75 76 76 73 69 63 57 52 47 42 39 37 35 34 34 35 37 39 43 49 55 61 67
22 20 20 20 21 23 27 30 35 39 42 46 48 51 54 56 59 62 68 73 76 74 69 62 55 50 46 43 40 39 37 37 36 35 35 36 36 35 34 32 30 31 32 37
26 24 23 24 24 30 34 35 39 43 46 50 52 56 58 61 65 69 73 74 70 61 54 49 47 45 44 43 42 43 43 43 44 43 43 43 43 42 40 37 35 32 29 28
26 26 26 28 31 34 38 41 43 46 48 54 56 58 61 64 69 72 73 69 59 51 48 48 49 50 49 48 48 48 48 48 48 46 46 46 46 46 43 41 39 37 34 30
25 26 28 30 33 39 41 44 45 47 49 52 55 59 64 70 74 75 69 59 51 49 50 52 53 54 54 53 53 53 52 52 50 48 48 47 46 45 42 40 37 36 34 32
26 29 31 34 37 40 43 45 48 51 54 57 62 65 69 73 74 70 61 54 51 51 53 56 57 57 57 56 55 55 55 54 53 51 49 48 46 44 41 39 37 37 36 34
28 30 33 37 39 43 45 48 51 54 57 61 66 69 73 76 73 63 54 51 52 54 56 57 58 58 57 56 55 54 53 53 52 51 49 47 45 42 41 40 39 39 39 37
31 31 34 38 41 43 47 49 52 54 58 63 68 72 75 74 65 55 52 52 54 56 58 59 58 56 54 53 53 52 51 50 49 47 45 44 42 40 39 39 37 37 37 38
28 32 37 42 45 45 47 50 53 55 60 65 69 74 74 67 56 53 54 56 57 59 59 60 58 56 53 52 50 49 47 46 44 42 40 38 38 37 36 36 35 34 35 35
32 36 40 44 46 48 49 51 54 57 62 66 70 74 68 58 54 55 56 57 59 60 60 59 58 56 53 50 47 44 41 39 37 34 32 31 31 32 32 31 31 31 33 33

GEFSCGP_500_meanwind_012.txt.gz
Wind_Speed
10 10 9 9 10 10 12 13 14 13 12 13 15 19 22 26 29 32 34 37 40 44 47 49 50 53 53 52 51 46 32 21 18 16 15 16 19 20 21 22 21 21 19 19
8 6 5 4 6 10 12 15 18 19 19 18 20 23 26 30 32 35 38 41 43 43 44 44 45 47 47 46 44 36 26 19 18 18 18 18 19 20 19 19 19 19 19 19
7 7 4 5 8 10 12 14 17 22 24 24 26 27 29 32 36 38 38 37 36 35 35 37 39 41 41 40 37 35 28 25 21 20 20 20 17 16 16 17 16 16 17 17
10 7 6 6 5 6 8 11 14 16 19 23 26 30 31 33 35 35 34 32 31 31 33 35 37 38 38 37 36 35 32 29 25 24 24 21 19 19 18 18 16 15 16 18
6 4 1 3 5 8 10 11 12 11 10 11 13 18 21 24 28 30 30 29 27 28 31 35 37 39 40 38 36 34 34 34 32 31 29 26 24 24 23 22 20 19 19 20
4 2 3 5 7 10 13 13 11 9 9 11 13 16 18 21 23 23 22 22 24 28 32 36 39 42 43 42 40 39 39 39 39 39 37 35 33 31 31 30 28 26 25 24
1 3 2 2 4 7 11 11 9 9 11 13 16 18 20 22 23 21 20 20 23 27 33 38 43 45 47 47 47 46 45 45 45 45 45 44 42 41 40 39 38 36 34 32
5 1 4 5 6 7 10 13 15 14 16 17 19 22 23 25 25 26 27 27 29 33 38 43 46 49 50 50 50 50 50 49 50 50 49 49 49 48 47 47 47 46 45 42
10 7 8 10 10 12 14 17 17 17 18 20 22 23 25 27 29 32 34 36 40 43 46 49 51 53 54 54 54 54 53 53 53 53 53 54 54 54 53 53 52 52 52 51
11 9 10 11 13 15 18 19 17 18 20 22 25 28 30 32 35 37 41 44 47 50 52 55 56 58 59 59 60 60 60 59 59 59 59 59 59 59 59 58 58 57 57 56
12 11 11 12 13 15 16 14 14 17 21 24 28 30 32 36 39 42 45 47 49 52 54 57 59 60 62 64 65 66 67 68 68 67 67 66 66 65 65 64 63 62 62 61
12 12 14 15 17 18 17 17 18 20 22 25 29 33 37 40 42 44 47 49 52 54 57 60 62 64 67 69 71 73 74 75 74 74 73 71 70 69 69 69 69 69 67 66
13 14 14 14 15 17 16 16 18 21 24 27 31 35 39 41 43 45 47 50 53 57 60 62 65 68 70 73 75 76 77 75 72 69 66 62 60 59 60 62 66 69 71 72
14 14 12 11 12 14 14 15 17 21 25 30 33 37 39 41 44 46 49 52 56 59 63 66 69 70 72 72 72 71 68 65 61 58 55 52 50 49 48 48 51 56 63 69
14 13 13 13 14 15 15 18 22 25 28 31 33 36 39 42 45 48 52 56 59 62 65 66 66 65 63 62 61 60 58 57 55 53 51 49 47 45 43 42 40 41 45 53
13 13 14 16 17 18 19 22 26 28 29 29 32 36 40 43 46 50 54 57 60 61 60 58 57 56 57 58 58 59 58 57 57 55 53 51 48 46 43 40 37 36 35 37
14 14 15 18 21 22 23 27 29 30 31 33 37 41 44 47 49 54 58 61 60 56 54 54 56 58 59 60 60 60 60 59 59 58 56 53 51 48 46 43 41 38 35 33
17 19 21 22 24 26 28 30 33 35 36 38 41 44 48 51 54 57 59 57 53 52 53 55 58 60 62 63 63 62 61 61 60 58 56 55 53 51 49 47 44 41 38 36
21 22 24 25 27 28 31 34 36 37 39 41 44 46 49 52 54 55 54 52 51 52 55 58 60 64 66 66 65 64 63 61 59 57 54 52 52 51 50 48 46 44 42 39
21 21 23 25 28 31 34 37 39 39 39 41 45 48 52 55 57 56 52 49 49 52 56 59 63 65 66 64 62 60 58 56 53 50 48 47 47 47 48 47 46 45 44 42
18 21 24 27 30 33 37 40 40 39 40 43 48 53 56 57 59 56 50 48 50 53 57 61 64 65 64 61 58 56 54 51 47 44 42 41 42 43 44 45 43 43 43 42
20 24 26 29 32 35 38 40 41 41 43 46 51 54 55 56 56 52 48 48 51 54 58 61 64 65 63 60 56 53 50 46 41 37 35 35 35 37 38 40 40 40 40 40
21 24 27 29 32 35 38 42 44 44 45 47 51 53 53 55 55 49 46 48 51 54 58 61 64 64 62 58 54 51 46 42 36 31 28 26 27 29 31 32 34 35 37 38
20 22 25 27 31 35 39 41 42 42 43 46 51 52 52 54 53 48 45 47 50 54 57 61 64 64 60 56 53 51 47 42 35 30 26 22 20 21 23 26 27 29 31 33
19 21 23 26 30 34 36 38 40 40 42 46 50 51 52 54 52 47 45 47 50 53 56 60 63 63 59 54 52 51 48 43 36 29 25 20 16 14 15 17 20 22 25 28
19 22 24 28 31 34 35 38 40 41 43 47 51 51 51 53 52 47 45 46 49 51 54 58 61 62 58 53 50 51 50 47 40 32 25 18 13 9 9 11 14 17 20 24

GEFSCGP_500_meanwind_018.txt.gz
Wind_Speed
12 13 15 15 16 16 17 17 18 20 20 21 20 18 17 18 21 24 28 31 33 35 37 38 41 42 45 45 44 41 39 38 38 37 36 30 23 18 17 21 26 26 24 23
9 10 11 12 14 14 15 16 17 18 19 20 21 20 21 22 25 28 30 32 34 37 39 41 43 44 45 44 41 38 37 37 38 37 35 31 27 23 18 17 17 19 21 21
7 8 9 10 11 12 12 13 13 14 16 18 20 20 21 24 27 30 32 34 36 37 38 39 41 41 40 39 39 39 39 39 39 38 37 34 31 28 24 20 19 20 21 21
6 5 6 7 9 9 7 8 8 9 11 13 15 16 18 22 25 27 28 29 30 30 30 32 32 34 35 37 39 41 41 41 40 39 38 35 32 30 27 25 23 23 23 24
3 2 3 4 5 5 4 5 6 7 8 9 11 14 16 19 21 22 23 24 25 27 28 29 31 33 35 37 39 41 43 43 43 42 40 39 37 34 32 30 29 29 28 28
3 1 1 2 4 5 5 5 7 8 8 10 12 14 16 18 20 22 24 26 28 30 31 33 34 36 37 39 41 43 44 44 45 44 43 42 41 39 38 36 35 35 35 35
3 1 1 4 6 7 8 8 9 10 10 11 13 14 16 18 21 24 27 29 31 33 35 36 36 37 38 40 41 41 42 43 43 44 44 44 44 44 43 42 41 41 41 42
2 1 4 6 8 9 10 12 13 15 14 14 15 17 19 22 24 27 30 32 34 35 37 37 38 39 40 40 41 42 42 42 43 44 45 46 47 48 48 48 48 47 47 48
4 4 6 8 9 10 12 13 15 16 16 17 18 20 23 25 28 31 33 35 36 37 38 40 41 43 44 44 45 46 45 44 43 43 44 45 47 48 50 52 53 54 54 54
7 7 8 9 11 13 14 15 17 17 19 20 22 24 26 29 31 33 35 36 37 39 41 43 45 47 48 49 49 47 44 42 41 42 43 44 45 46 47 48 51 55 58 59
10 11 11 12 13 13 14 15 17 18 20 23 26 28 29 31 33 34 36 38 40 42 45 47 50 52 52 51 49 48 47 48 49 49 50 51 52 52 52 52 52 52 54 58
13 14 13 12 11 11 13 15 17 19 22 25 28 29 31 32 33 35 37 40 43 46 48 50 52 52 50 49 48 49 51 54 56 58 59 61 61 60 58 56 55 55 55 55
14 14 13 12 11 11 13 15 18 20 23 26 29 30 31 32 34 36 39 43 45 48 49 52 51 49 47 47 48 51 54 57 60 63 65 66 65 64 62 59 56 55 54 54
15 15 13 11 10 11 12 15 19 23 26 28 29 29 29 31 34 37 41 43 46 48 51 51 48 46 45 46 49 53 57 60 63 66 67 67 67 66 64 60 57 54 53 52
16 16 14 12 11 13 16 19 22 26 28 29 29 29 30 32 36 40 43 45 47 49 50 49 46 44 45 47 51 55 59 63 65 66 66 66 66 65 62 59 55 53 52 51
18 18 16 14 14 16 19 22 25 28 29 29 29 30 32 35 40 43 45 47 49 51 50 46 43 43 45 49 53 58 62 64 66 65 64 63 62 62 60 56 52 49 48 48
18 18 17 15 16 17 21 24 27 28 30 31 32 33 35 36 41 45 46 48 51 52 48 44 43 44 47 51 56 60 64 65 63 62 62 62 61 58 55 51 48 45 43 44
17 17 17 17 18 21 24 26 28 30 31 33 34 36 38 39 42 45 48 50 52 51 46 43 44 46 49 53 57 61 64 63 61 60 61 61 58 53 48 44 41 40 39 40
17 18 19 20 21 23 26 28 30 32 32 34 36 38 40 41 42 43 45 48 50 50 46 45 46 48 51 54 58 61 62 60 59 60 60 59 54 48 42 38 35 34 35 36
16 18 20 22 23 25 26 28 31 33 34 36 38 41 43 44 45 44 46 49 51 51 48 46 47 49 51 55 58 61 60 58 57 58 59 55 50 43 37 32 28 28 30 32
17 19 21 23 23 23 24 28 31 33 35 37 40 42 44 46 48 49 49 51 53 52 48 46 47 48 51 55 58 60 58 56 57 57 57 52 45 38 32 26 22 22 25 28
20 22 23 23 22 23 25 28 31 32 34 37 40 42 44 45 47 49 49 51 52 51 48 46 46 48 51 55 58 59 57 55 56 55 54 50 43 35 28 22 18 16 19 24
22 23 24 22 22 24 26 29 31 32 35 38 40 43 44 45 47 49 49 51 52 51 48 46 45 47 50 54 58 58 56 55 55 54 52 48 42 34 26 20 14 11 14 19
21 22 22 22 23 25 27 29 31 33 36 39 41 43 45 46 48 49 50 50 51 51 48 45 45 46 49 53 56 56 55 54 54 53 51 47 41 34 27 20 13 8 7 13
20 19 20 22 24 26 28 30 32 35 37 39 41 43 45 46 47 49 49 50 50 50 48 46 44 45 48 51 53 54 54 52 52 52 50 46 41 35 28 21 14 8 4 6
19 20 21 23 25 27 29 31 33 35 37 39 41 43 44 45 47 48 49 49 50 49 48 45 44 44 46 49 51 52 52 51 50 50 49 45 41 36 30 22 15 9 4 2

GEFSCGP_500_meanwind_024.txt.gz
Wind_Speed
5 4 4 7 7 8 8 8 10 14 15 16 18 18 19 20 20 21 21 21 23 25 27 29 31 33 34 35 36 37 38 38 37 37 37 37 37 37 37 36 33 31 28 27
1 4 7 6 6 7 7 6 10 13 13 14 15 15 16 16 17 18 19 20 22 24 25 27 28 29 31 33 34 35 36 37 37 37 38 38 38 38 37 36 34 31 28 26
4 8 8 8 7 5 6 5 9 11 10 10 11 11 13 13 14 16 17 19 21 23 25 27 29 31 32 33 34 36 37 38 39 40 40 40 39 39 38 37 35 33 30 27
6 8 8 7 8 6 6 9 8 8 9 10 10 13 13 15 17 18 20 21 23 25 27 28 31 32 34 35 36 38 39 40 40 41 42 42 41 40 39 38 37 35 33 31
4 4 4 5 6 5 8 7 7 8 10 12 13 14 16 17 19 20 21 23 25 27 29 31 33 34 35 35 37 38 39 41 42 43 43 43 43 42 41 40 38 38 36 35
1 0 1 1 2 3 4 6 8 10 12 13 17 16 20 19 20 22 24 26 28 29 31 32 33 34 35 36 38 39 40 42 44 45 45 45 44 43 42 41 40 39 39 38
3 1 1 2 3 4 5 6 9 10 11 14 21 20 20 21 22 25 27 28 30 31 32 32 33 34 36 37 39 41 42 43 44 44 44 43 42 41 40 40 41 41 41 41
4 5 4 5 5 7 7 7 9 10 12 16 21 19 19 22 25 27 28 29 30 31 32 33 35 36 38 39 40 41 42 42 41 40 39 39 39 39 39 40 41 41 43 44
4 6 5 6 6 8 9 10 11 11 13 13 18 19 20 23 26 27 28 29 30 31 33 35 37 39 40 41 42 42 41 39 37 37 36 36 37 39 40 42 43 44 44 46
5 6 7 7 8 8 9 9 9 9 11 12 16 22 23 24 25 26 27 29 31 34 36 38 39 40 41 43 43 42 39 37 36 36 36 37 39 41 43 45 47 48 49 50
6 7 8 8 7 8 8 8 9 10 12 14 15 22 23 24 25 27 29 31 33 35 37 38 39 41 42 43 42 40 38 37 36 37 38 40 43 45 48 49 51 52 53 55
7 8 8 8 8 8 8 9 10 12 15 17 19 22 22 24 26 28 30 32 34 36 38 39 40 41 42 42 41 39 38 38 38 39 41 44 47 49 51 52 54 56 57 58
7 9 10 10 11 10 11 11 12 14 16 18 19 23 23 25 27 29 31 34 36 37 38 39 41 42 43 42 40 39 39 39 40 42 44 47 49 51 53 55 57 59 59 59
8 9 8 8 11 13 14 14 15 16 18 19 21 23 25 27 30 32 34 36 37 39 40 40 41 43 43 42 40 40 39 40 42 44 47 49 51 53 55 57 58 59 59 59
9 10 11 12 14 15 17 17 17 17 18 20 22 24 26 29 32 34 35 37 39 40 41 42 42 43 43 41 40 40 40 41 43 46 49 51 53 54 56 58 59 59 58 57
11 12 13 15 15 17 18 18 18 18 19 20 23 25 27 30 33 36 37 39 40 41 42 42 42 43 43 42 41 40 41 42 45 48 51 52 54 55 57 57 57 55 53 52
13 14 15 17 18 18 18 18 18 18 20 22 24 27 30 32 35 38 39 41 42 43 43 43 43 44 43 42 42 42 42 44 47 50 52 54 54 56 56 56 54 50 47 46
14 16 18 19 19 19 18 19 18 18 21 24 26 28 31 33 36 38 40 42 43 44 44 45 45 45 44 44 43 43 44 46 49 52 53 54 54 56 55 54 50 46 42 39
16 17 18 19 20 21 19 17 18 19 21 24 27 29 31 34 38 40 42 44 45 46 47 47 47 46 46 45 44 44 45 47 50 52 53 53 54 55 54 52 47 42 37 33
16 17 19 20 20 20 20 19 20 22 23 25 28 30 33 35 38 41 44 45 46 48 48 48 48 48 47 46 45 45 46 47 49 52 52 52 52 53 52 49 44 39 34 29
17 17 18 20 20 21 20 21 22 24 26 28 30 32 35 38 40 42 44 45 47 48 48 48 48 48 47 46 45 45 46 47 49 51 51 51 51 51 50 46 41 36 31 26
18 19 19 19 20 22 21 21 23 25 27 29 31 33 36 39 42 44 46 47 48 48 48 48 48 47 47 47 45 45 46 46 48 50 50 49 50 49 47 43 39 34 29 23
18 19 20 19 20 21 21 22 23 25 27 29 31 34 37 40 43 45 47 48 48 49 48 48 47 46 47 47 46 45 45 46 47 48 48 48 48 47 45 41 37 32 27 21
21 19 19 20 20 21 22 23 24 26 28 30 33 36 39 41 44 46 48 48 48 48 48 47 46 46 46 46 45 45 44 44 45 46 47 48 46 44 43 39 35 30 25 19
22 19 19 19 20 21 23 24 25 27 29 32 35 38 40 42 44 46 48 48 48 48 47 46 46 45 45 45 45 44 43 43 44 45 46 46 45 43 40 37 34 29 24 19
22 20 19 19 20 21 23 25 26 28 31 34 37 39 41 43 44 45 47 48 47 47 46 45 45 45 45 45 44 43 42 42 42 43 44 44 44 42 39 36 32 28 23 19

GEFSCGP_500_meanwind_030.txt.gz
Wind_Speed
4 4 8 9 8 9 10 11 12 9 13 15 22 25 22 21 20 18 17 17 17 17 18 20 22 24 25 28 30 31 33 34 35 35 35 36 36 36 37 37 36 36 36 36
8 13 8 3 6 8 8 10 15 18 20 19 18 19 15 13 12 12 13 14 15 17 18 21 22 24 27 28 30 31 33 34 35 35 36 36 36 36 37 38 38 38 37 38
14 11 8 6 6 8 10 15 16 17 18 16 15 14 12 11 10 12 14 16 18 19 21 23 26 27 29 30 32 33 34 34 35 36 37 38 39 39 39 40 40 39 39 40
9 6 7 8 9 10 15 15 14 14 16 18 20 21 14 9 9 13 17 18 21 23 25 26 28 30 31 32 33 34 34 35 37 39 40 41 41 41 41 42 41 41 41 41
4 7 7 7 7 9 11 10 12 15 21 25 25 20 11 11 14 17 20 22 24 26 27 28 29 30 31 33 35 36 36 37 38 40 42 43 43 43 43 43 42 41 40 40
5 6 6 5 5 7 7 10 16 19 22 25 21 16 11 16 21 24 25 25 26 27 28 28 29 30 31 33 35 36 37 38 39 41 42 43 43 43 42 42 40 39 38 38
5 3 6 7 8 9 6 10 17 23 25 23 18 14 11 19 24 26 28 27 27 27 27 28 30 31 32 33 34 36 37 38 39 40 41 41 41 41 40 40 39 38 37 37
11 9 8 11 11 11 8 10 15 18 21 23 20 18 18 21 23 24 25 26 26 27 29 30 31 31 33 34 35 36 37 38 39 39 39 39 39 39 39 39 39 38 38 38
9 10 12 12 11 11 9 10 11 11 11 15 21 22 21 22 23 23 24 26 27 28 29 30 31 32 34 35 35 36 37 38 39 39 39 39 39 38 38 38 39 39 40 41
8 8 9 14 11 12 11 10 9 6 8 8 12 20 22 23 24 25 26 27 28 29 30 31 32 34 34 36 36 37 38 38 38 38 39 39 38 38 38 38 38 39 41 43
9 7 6 9 11 11 11 10 9 7 8 8 10 22 24 25 25 25 26 28 30 31 32 33 34 35 36 37 38 38 39 39 39 39 39 39 39 39 39 39 40 41 42 43
10 7 6 10 10 9 10 11 10 10 10 10 10 23 25 26 25 26 28 29 31 32 33 34 35 37 38 38 39 40 40 40 40 40 40 40 40 40 40 41 42 43 44 45
11 9 8 12 10 10 11 14 14 12 11 11 10 21 27 28 29 29 30 32 33 34 35 36 37 38 39 40 41 42 42 42 42 42 42 41 41 42 42 43 43 44 45 46
12 11 8 9 11 13 13 14 15 15 13 14 16 21 25 27 28 29 31 32 34 35 37 38 39 40 40 41 42 42 42 42 43 43 43 43 42 42 43 43 44 45 46 48
12 10 10 10 11 12 13 14 16 16 16 17 19 22 26 27 28 30 31 33 35 36 38 39 40 41 41 42 42 43 43 43 43 43 44 43 43 43 43 44 45 46 48 49
14 11 11 9 9 12 14 16 17 18 18 19 20 23 26 28 29 30 31 33 35 36 38 39 41 42 42 43 43 43 44 44 44 44 44 44 43 43 44 45 46 47 48 48
14 12 10 8 8 10 15 16 19 21 20 22 23 25 26 27 29 30 31 34 35 37 39 40 41 42 43 44 44 44 45 45 45 45 45 44 44 44 44 45 46 47 48 47
12 12 11 9 8 10 14 18 20 21 21 22 23 25 26 28 31 32 33 36 37 39 40 41 42 43 44 44 45 46 46 47 47 46 45 44 44 44 44 46 47 47 47 45
17 16 14 12 10 10 16 22 20 21 22 20 21 23 25 28 32 36 36 38 40 41 41 42 43 43 44 44 45 46 47 48 47 46 45 45 44 44 44 46 46 46 45 43
20 19 17 16 15 13 15 19 21 22 24 22 23 24 26 28 30 34 37 39 39 40 41 41 42 43 44 45 46 47 48 48 47 46 45 44 43 44 44 45 45 44 42 41
22 21 20 21 19 17 21 21 21 23 24 24 25 26 27 29 31 34 36 38 39 40 41 42 43 45 46 46 47 48 48 48 47 46 45 43 43 43 44 44 43 42 41 39
19 19 20 22 20 21 26 25 24 23 23 24 25 26 28 30 33 35 38 40 40 41 42 42 43 45 47 48 48 49 49 48 47 46 44 43 42 43 44 43 41 40 39 37
20 21 22 21 22 26 27 26 25 24 24 25 26 27 29 32 34 36 38 40 40 41 42 42 43 45 47 48 49 49 49 48 47 45 43 42 42 42 43 41 39 38 37 36
21 25 25 22 21 24 26 26 26 26 26 27 27 29 31 33 35 37 38 40 40 41 41 42 43 45 47 48 49 50 49 48 46 45 43 42 41 41 42 40 38 37 35 34
20 23 24 24 23 24 24 26 27 28 28 28 29 31 32 34 36 37 39 40 41 41 42 43 44 45 47 48 49 50 50 48 46 44 42 41 41 41 41 39 37 35 34 32
23 23 24 24 24 26 26 27 28 29 29 29 31 32 34 35 37 39 40 41 41 41 42 43 44 46 47 48 49 50 50 48 46 44 42 40 40 40 40 38 36 34 33 30

GEFSCGP_500_meanwind_036.txt.gz
Wind_Speed
4 3 2 3 4 5 8 9 9 10 11 13 16 19 20 19 16 13 10 9 10 11 14 16 17 19 21 24 26 28 30 31 33 34 35 35 36 36 37 37 36 36 36 36
7 5 3 2 3 5 8 10 10 11 13 14 17 18 16 14 10 8 7 7 8 10 12 14 17 19 21 23 25 27 29 31 32 33 34 34 34 34 35 36 36 36 36 37
9 4 3 1 1 4 6 10 12 14 16 19 21 21 19 10 7 3 3 3 6 9 12 14 16 18 20 21 23 25 27 28 29 30 31 32 33 33 34 34 35 35 36 36
8 5 3 2 4 7 8 10 13 14 15 18 20 19 13 9 6 5 4 4 6 9 12 14 16 18 19 21 22 24 25 26 28 29 30 31 32 33 34 34 34 34 34 34
8 6 6 6 7 9 10 10 12 12 13 15 16 17 14 12 9 8 7 8 8 10 12 15 17 19 20 22 23 24 25 26 28 29 29 30 31 32 33 33 33 34 34 34
8 7 7 8 10 11 10 9 10 10 11 11 12 14 14 12 12 11 10 10 11 13 15 17 19 21 22 23 24 25 27 28 29 30 31 31 32 33 33 34 34 34 35 35
8 7 6 8 9 9 8 9 9 8 8 9 10 11 13 12 11 11 11 12 14 17 19 21 23 24 26 27 28 29 30 31 32 32 33 33 34 34 34 35 35 35 36 37
6 6 5 6 7 6 7 8 9 9 10 9 9 10 12 11 11 12 14 16 18 21 23 25 27 29 30 31 32 33 34 35 35 35 35 35 35 35 35 36 36 37 37 38
7 7 6 6 7 7 8 8 8 8 9 9 9 9 12 12 13 15 18 20 22 24 27 29 31 33 34 35 35 36 36 36 35 35 35 35 35 35 36 37 38 38 39 39
8 8 7 8 9 11 12 10 8 7 7 9 11 12 15 16 17 18 20 23 25 27 30 32 34 35 36 36 37 37 37 36 36 36 35 35 35 36 37 38 39 39 39 40
9 8 7 7 7 8 9 8 8 8 10 12 16 18 18 19 19 21 23 25 27 29 31 34 35 35 36 36 36 37 37 37 36 36 36 36 37 38 39 39 40 40 40 40
8 8 7 7 6 6 8 10 10 11 13 16 19 20 20 20 21 23 25 26 27 29 31 33 34 35 35 35 36 36 36 36 37 37 37 38 39 40 40 41 41 41 40 40
8 9 9 8 7 7 8 10 12 14 15 17 19 20 20 20 22 23 24 25 27 29 31 33 33 34 34 34 35 36 36 37 38 38 39 40 41 41 42 41 41 41 40 39
9 10 9 9 10 10 8 9 13 15 16 17 18 19 19 20 21 23 23 25 27 29 31 32 33 33 34 34 35 36 37 38 39 40 40 41 42 43 42 42 41 40 39 38
7 8 9 9 10 10 10 10 13 15 16 17 18 19 20 20 21 22 24 26 28 30 32 33 33 34 34 35 36 37 38 39 41 41 42 43 43 43 43 42 41 40 38 38
6 5 6 7 10 10 11 11 13 14 16 18 19 20 21 21 22 23 25 27 29 31 33 34 34 35 36 36 37 39 40 41 42 43 44 44 44 44 44 42 41 39 38 39
7 7 6 7 9 10 12 11 12 14 16 18 20 21 21 22 22 23 25 27 30 32 34 35 36 37 37 38 39 40 42 43 44 45 46 46 46 45 44 43 41 39 39 39
6 7 8 9 9 9 11 13 14 16 18 18 19 21 22 23 23 24 26 29 31 33 35 37 37 38 39 39 41 42 43 45 46 47 47 48 47 46 45 43 41 40 39 40
6 7 10 11 11 11 13 14 15 17 18 19 21 23 23 24 25 26 28 31 33 34 36 37 38 39 40 41 42 43 44 46 47 47 48 48 48 46 44 43 41 40 40 40
10 11 13 13 14 13 12 13 17 19 20 21 23 23 24 26 27 29 30 32 34 35 37 38 39 39 41 42 43 44 45 46 47 48 48 48 48 46 44 43 41 41 41 40
15 16 17 17 18 18 18 20 21 22 23 23 23 24 25 26 28 29 32 34 35 36 37 38 39 41 42 43 44 45 46 47 47 48 48 48 48 47 45 43 41 41 40 39
20 20 21 21 23 23 23 24 24 24 24 24 24 24 25 26 28 30 32 34 35 37 38 39 40 42 43 44 45 45 46 47 47 47 48 48 48 47 45 43 41 41 40 39
22 23 24 23 23 24 24 25 26 26 26 25 25 24 25 26 28 30 33 36 37 38 39 40 42 43 44 45 45 46 46 46 47 47 47 47 48 47 45 43 41 40 39 38
21 24 26 26 24 24 24 25 26 26 27 26 26 25 26 27 28 31 34 37 39 40 41 42 43 44 45 45 45 45 46 46 47 47 46 47 47 46 44 42 41 39 38 37
20 24 26 27 25 24 24 25 26 27 28 28 28 28 28 29 30 32 35 38 41 42 43 43 43 44 45 46 46 46 46 46 46 46 46 46 46 45 44 42 40 38 37 36
22 26 27 27 26 26 26 27 28 30 30 31 32 33 33 34 34 35 37 40 42 44 44 45 45 46 46 46 46 46 46 46 46 45 45 45 45 44 43 41 39 37 36 35

GEFSCGP_500_meanwind_042.txt.gz
Wind_Speed
7 7 5 4 5 6 8 9 9 9 9 10 13 15 17 18 20 21 21 21 21 20 19 18 17 17 18 19 21 22 24 25 26 27 28 29 29 30 30 30 30 30 31 31
6 5 4 4 3 4 5 5 5 6 6 8 9 11 11 12 13 13 13 13 14 15 14 14 15 17 19 20 21 23 24 26 27 28 29 30 30 31 31 30 30 30 30 30
6 5 4 4 4 4 3 4 3 3 4 4 6 6 6 6 5 3 4 5 8 8 10 12 13 16 17 19 21 23 25 26 27 28 29 30 31 31 31 31 30 30 29 29
6 5 4 4 4 5 4 3 2 3 3 3 5 6 8 7 4 4 2 3 4 5 7 10 12 15 17 19 21 23 24 26 27 28 29 29 30 30 31 31 30 30 30 29
5 5 4 4 4 5 5 4 3 3 2 2 4 6 8 9 7 5 4 4 4 5 7 10 13 15 17 19 20 21 22 24 25 25 26 27 28 28 28 28 29 29 29 29
5 5 4 5 6 6 5 4 3 3 2 1 2 4 5 6 6 4 4 5 6 7 9 11 13 15 16 17 18 20 21 22 23 23 24 25 26 26 26 27 28 28 29 29
6 5 5 6 6 6 6 5 5 4 3 3 2 3 4 5 5 5 6 7 7 8 9 11 12 14 15 16 18 19 21 22 23 24 25 25 25 26 26 27 28 29 30 31
7 6 6 6 6 7 7 7 7 6 5 4 4 4 6 7 7 8 8 8 8 9 10 11 12 13 15 16 18 20 22 23 25 25 26 26 26 26 27 27 28 30 31 32
8 7 7 7 7 7 8 9 8 6 5 4 4 5 7 9 9 9 9 8 9 9 10 12 13 14 16 18 20 22 23 24 25 26 27 27 28 28 28 29 30 31 33 34
9 8 8 8 8 7 9 10 9 6 5 4 4 4 6 8 9 9 9 9 9 10 11 12 14 17 19 21 23 24 25 26 27 27 28 29 30 31 31 32 33 34 35 36
9 8 8 9 9 9 9 10 9 8 7 6 5 5 7 8 9 10 10 10 11 12 13 15 18 20 22 24 25 26 27 28 28 30 31 31 33 34 34 35 36 37 37 38
11 10 9 10 10 10 10 11 11 9 8 7 7 8 8 9 10 11 12 12 13 14 16 18 21 23 24 26 27 28 29 30 31 32 33 34 35 36 38 38 39 39 40 40
11 11 10 10 12 12 13 13 13 11 9 8 9 11 11 12 12 13 14 15 16 18 19 21 22 24 26 27 28 30 31 32 33 35 36 37 38 39 40 42 42 42 42 42
12 12 12 12 14 15 15 14 14 13 12 11 11 13 14 14 15 16 17 18 19 20 21 22 24 25 27 29 30 31 32 34 35 37 38 39 40 41 43 44 44 45 44 44
12 12 12 12 13 13 13 13 14 13 13 13 13 14 16 17 18 18 19 20 20 21 22 23 25 27 29 30 32 33 35 36 37 38 39 40 41 43 44 45 46 46 46 45
11 11 11 11 12 12 12 12 13 13 13 14 15 17 18 20 20 21 22 22 22 22 23 25 26 28 30 32 34 36 37 38 39 40 41 41 43 44 45 46 47 47 46 46
12 11 11 10 11 11 11 11 12 13 14 15 16 18 20 22 22 23 23 23 23 24 25 26 28 30 32 34 36 37 39 39 40 41 41 42 44 45 46 47 47 47 47 46
12 11 11 10 10 10 10 11 11 12 13 15 17 19 21 22 23 23 23 23 24 25 26 28 30 32 34 36 38 39 40 40 41 42 43 44 45 46 47 48 48 47 46 46
11 11 12 11 11 9 9 12 12 13 13 16 18 20 21 22 23 23 24 25 26 26 28 29 31 33 36 38 39 40 40 41 42 43 44 45 46 47 48 48 48 47 46 45
13 14 15 15 14 11 11 13 14 14 14 17 19 20 21 23 23 24 26 27 28 29 30 31 33 35 37 38 39 40 40 41 43 44 45 46 47 48 49 48 47 46 45 44
16 17 18 19 17 15 15 17 16 18 18 18 19 21 22 24 25 26 27 28 30 31 33 34 36 37 39 39 40 41 41 42 44 45 46 48 49 50 50 48 47 45 44 43
20 21 21 22 20 21 20 20 21 21 21 22 22 23 24 25 26 27 28 30 31 33 35 37 39 39 40 41 41 42 43 44 46 47 48 50 51 51 49 47 45 44 43 42
23 24 25 24 23 23 24 24 24 25 25 25 26 26 27 27 28 29 30 32 33 36 38 39 40 41 41 42 43 44 45 47 48 50 51 52 51 51 49 46 44 43 42 41
23 26 27 28 26 27 28 28 28 28 29 29 29 30 31 31 30 31 32 34 35 37 39 41 41 42 43 43 44 46 47 49 51 52 52 52 51 50 48 45 43 42 41 39
24 27 29 30 30 31 30 30 30 30 31 32 32 33 34 34 33 34 35 36 37 38 39 41 42 42 44 45 46 48 50 52 53 54 54 53 51 49 47 44 42 41 40 38
27 31 33 33 33 34 33 33 33 33 33 34 35 36 36 37 37 37 37 38 38 39 40 41 42 43 45 47 49 51 53 55 56 55 54 52 50 48 45 42 41 40 38 37

GEFSCGP_500_meanwind_048.txt.gz
Wind_Speed
14 13 11 10 8 7 7 8 9 10 10 11 12 14 15 15 15 16 17 17 17 18 16 13 11 10 9 9 10 11 13 13 15 16 17 18 19 19 19 20 20 20 21 21
12 11 10 10 8 7 8 8 9 10 10 11 11 12 12 12 12 12 11 10 9 7 7 7 7 7 8 9 10 11 13 14 15 16 18 19 20 20 20 20 20 21 21 21
9 9 9 9 8 7 8 8 9 10 9 9 10 10 10 9 9 6 4 3 2 2 2 3 4 5 7 9 10 12 13 15 16 18 19 19 19 20 20 20 20 20 20 20
8 9 9 8 7 7 7 8 8 8 8 9 9 10 10 10 10 8 6 4 4 3 3 4 4 6 8 10 12 13 15 16 17 18 18 18 18 18 18 18 18 18 18 18
9 9 8 7 7 8 7 7 7 8 8 8 9 8 9 10 10 9 8 8 7 7 6 6 7 8 10 12 14 15 16 17 17 17 17 17 17 17 17 17 17 17 16 17
10 9 8 8 8 8 8 8 8 8 8 9 9 8 9 9 9 9 9 9 8 9 8 8 9 11 12 14 15 15 15 15 16 16 17 17 17 17 18 18 18 18 17 17
10 10 9 9 9 9 8 7 7 8 8 10 10 9 10 10 9 9 10 10 10 10 10 11 12 13 14 14 14 15 15 16 16 16 16 17 17 18 18 18 19 19 19 20
8 10 10 9 9 9 8 6 5 4 6 9 10 10 11 10 10 10 10 10 10 10 10 11 12 13 14 14 15 15 15 16 16 16 17 17 18 19 19 19 20 21 22 23
8 10 12 11 9 9 9 7 6 6 6 6 8 9 10 10 10 10 10 10 10 10 11 11 12 13 14 14 15 15 16 16 17 17 18 19 20 20 21 21 22 23 24 25
10 10 12 11 10 9 8 8 6 4 4 5 9 10 11 11 11 10 10 10 10 11 11 12 13 13 14 14 15 16 16 17 17 18 19 20 21 22 23 24 25 25 26 27
11 10 12 12 11 11 10 9 6 5 6 4 7 10 12 11 11 10 10 10 11 11 12 13 13 14 15 15 16 16 17 18 19 20 21 22 23 24 25 25 27 28 29 30
12 11 11 13 13 12 11 10 9 7 9 9 8 11 14 12 11 10 10 11 12 12 13 14 14 15 16 16 17 18 18 19 20 22 23 24 25 26 27 28 29 30 32 33
12 11 9 10 12 12 12 12 12 11 10 10 9 11 16 14 12 12 12 12 12 13 14 15 15 16 16 17 18 19 20 21 23 24 25 26 27 28 29 30 31 33 35 36
13 12 9 9 11 13 13 13 13 12 12 12 13 13 16 15 14 13 13 13 13 14 15 15 16 16 17 18 19 20 22 23 25 26 27 28 29 30 31 33 34 36 37 39
14 13 12 11 13 13 12 13 14 14 13 14 14 15 16 16 14 14 14 14 14 14 15 15 16 17 18 19 20 22 24 25 27 28 28 29 31 32 33 35 37 39 40 42
14 14 13 12 13 13 12 12 13 13 14 14 14 15 16 15 15 14 14 14 14 15 15 16 17 18 19 21 23 24 26 27 28 29 30 31 32 34 35 37 39 41 42 44
15 15 14 12 14 13 10 11 12 12 13 14 14 15 16 15 15 15 15 15 16 16 16 17 18 20 21 23 25 27 28 29 30 31 31 32 34 35 37 39 41 43 44 45
15 15 14 13 13 12 10 14 12 12 12 14 15 16 17 17 17 18 17 17 17 17 17 19 20 22 24 25 27 28 29 30 31 32 32 34 35 37 39 41 44 45 46 46
17 16 15 14 13 13 13 16 15 14 14 17 18 18 19 20 19 20 20 19 19 19 20 21 23 24 26 28 29 30 31 32 32 33 34 35 37 39 41 44 46 47 47 47
18 18 17 16 16 15 16 19 18 17 16 20 21 21 22 21 20 21 22 22 22 22 24 25 26 28 29 30 32 33 33 34 34 35 36 38 40 42 44 46 48 49 48 47
20 19 19 19 19 17 22 21 20 19 20 22 22 23 23 22 22 23 24 25 25 26 27 28 30 31 33 34 35 35 36 36 37 38 39 41 42 44 47 49 50 50 49 47
21 21 22 22 21 21 27 24 24 24 24 24 24 24 24 24 24 25 26 27 28 29 30 32 33 34 36 37 38 39 39 40 40 41 42 43 44 47 50 51 51 51 49 46
24 24 26 26 25 28 28 27 26 25 25 25 26 26 26 26 27 27 28 29 30 31 33 34 36 37 38 40 41 43 44 44 45 45 45 46 47 49 51 52 52 51 49 45
27 27 27 28 28 30 29 29 29 29 29 29 29 29 30 30 30 30 31 32 33 34 35 37 38 39 40 42 44 46 48 49 50 49 48 49 49 51 52 52 52 51 48 45
30 29 29 30 31 32 32 31 32 32 33 33 33 33 33 33 33 33 34 35 35 36 38 39 40 41 42 45 47 49 51 53 52 51 51 52 53 53 53 53 52 50 47 44
28 29 30 32 32 33 33 33 34 34 34 34 34 34 34 35 35 35 36 37 38 39 41 42 43 44 46 48 49 50 52 54 54 54 54 54 54 53 53 52 50 48 45 43

GEFSCGP_500_meanwind_054.txt.gz
Wind_Speed
13 14 13 11 11 10 10 12 14 14 11 10 11 12 12 11 12 10 12 13 14 16 17 16 15 13 11 10 9 8 8 9 9 9 10 11 12 13 14 14 14 15 16 17
14 13 12 12 11 10 11 10 12 13 11 10 10 11 12 11 11 9 8 7 7 9 12 10 9 8 8 7 7 6 6 6 7 8 9 10 10 11 11 12 13 14 15 16
10 12 13 13 12 11 12 11 12 12 12 11 9 9 13 12 12 11 9 6 2 1 2 4 4 4 3 3 3 3 4 5 6 7 9 10 11 11 12 12 13 14 15 15
9 11 13 13 12 12 13 12 10 9 9 9 10 12 11 12 11 10 10 9 6 5 4 3 2 2 2 1 0 2 4 5 7 9 10 11 12 13 14 14 15 15 16 16
11 13 13 14 14 13 11 9 7 8 9 9 6 11 12 10 11 9 8 8 6 6 5 5 4 4 4 3 3 4 6 8 9 10 11 13 14 14 15 16 16 16 16 16
10 11 11 11 12 11 9 9 11 13 12 7 10 9 12 12 11 9 8 7 6 5 5 5 5 5 4 4 5 6 8 9 11 12 13 14 15 16 17 17 17 17 17 17
17 16 11 10 9 13 10 9 15 18 16 12 14 9 11 12 11 10 8 6 6 5 5 5 5 5 5 6 8 9 10 11 13 14 15 15 16 17 18 19 19 19 19 19
19 19 13 12 10 13 11 7 11 12 14 11 7 9 13 12 12 11 9 8 7 6 6 6 6 7 7 8 9 10 12 13 14 15 16 17 17 18 19 19 19 19 20 20
14 16 17 15 14 12 9 7 8 7 7 8 4 9 12 11 13 13 12 10 9 8 7 7 7 8 8 9 10 12 13 14 15 16 17 18 19 20 20 20 20 20 20 21
13 14 13 14 13 9 8 7 7 4 6 10 9 6 9 16 17 16 14 12 11 10 10 10 10 10 10 11 12 13 14 15 16 17 17 18 19 20 20 21 21 21 21 22
14 14 12 14 13 8 9 9 7 6 7 7 12 9 11 16 19 19 16 14 13 13 12 12 12 12 12 12 12 13 14 15 16 18 19 19 20 20 20 21 21 22 23 24
16 14 13 15 15 11 8 9 10 9 10 8 9 12 12 15 20 21 19 18 16 16 16 15 14 13 13 13 13 14 15 16 17 19 20 21 21 22 22 22 22 23 24 26
17 15 14 16 17 14 9 9 9 9 9 8 10 14 14 16 18 19 18 19 19 17 17 17 16 15 15 15 15 15 16 17 18 20 21 22 23 23 24 24 25 26 27 29
17 16 15 16 15 11 7 5 7 10 10 11 13 14 15 16 18 21 21 20 19 18 17 18 17 17 17 17 17 17 18 19 20 21 23 24 25 25 26 27 28 29 30 32
17 15 14 13 13 12 10 11 11 13 14 14 14 14 16 19 21 23 22 21 20 19 18 18 18 18 18 18 18 19 20 21 22 24 25 26 27 28 28 29 30 32 33 34
19 19 16 14 11 12 11 12 13 13 13 13 13 14 18 20 22 22 22 21 21 20 20 19 19 19 19 20 20 21 22 23 24 26 27 28 29 30 31 32 33 34 36 37
19 20 17 13 12 14 13 13 15 14 12 13 14 15 18 20 22 21 21 21 21 21 21 21 21 21 21 21 22 23 23 25 26 27 29 29 30 31 33 34 35 37 38 39
19 17 17 14 13 14 12 12 13 13 12 13 15 16 18 19 19 20 20 20 21 21 22 23 23 23 23 23 24 25 26 27 28 29 30 31 32 33 35 36 38 39 40 41
20 18 16 14 15 16 16 18 18 17 16 15 16 17 19 19 19 21 22 22 21 23 24 25 25 25 26 26 26 27 29 30 31 32 33 34 35 36 38 39 41 42 44 43
19 17 16 16 16 18 21 21 20 19 20 18 17 18 19 20 20 22 24 26 27 27 27 27 27 28 29 29 30 30 31 33 34 35 36 37 39 40 42 43 43 45 45 45
19 17 18 17 16 19 24 23 21 21 23 20 18 19 22 25 26 26 27 28 30 31 31 30 30 30 31 32 33 33 34 36 38 39 40 41 42 44 45 46 46 47 47 47
15 18 22 22 21 24 25 25 24 24 24 23 24 26 27 29 29 29 29 30 31 32 32 33 33 33 34 35 36 36 37 39 41 43 44 46 47 48 49 48 48 48 48 49
19 22 24 26 26 27 29 28 25 25 27 28 30 30 30 31 31 32 32 33 33 34 34 35 36 36 37 38 39 40 41 43 44 46 47 48 49 50 50 50 50 50 50 52
25 27 28 28 30 31 31 28 28 29 30 32 33 33 33 33 34 35 35 35 35 36 36 37 38 39 40 41 42 43 44 46 47 48 49 50 51 51 52 52 53 53 53 54
29 30 30 30 34 35 31 31 32 33 34 34 34 35 35 35 36 36 37 37 37 38 38 39 40 41 42 43 44 45 47 47 49 50 51 52 53 53 54 54 55 55 55 55
30 32 32 34 35 36 37 36 37 37 37 36 36 36 36 36 37 37 38 38 39 40 40 41 42 43 44 45 46 47 48 49 50 52 53 54 55 55 56 57 56 56 57 56

GEFSCGP_500_meanwind_060.txt.gz
Wind_Speed
5 4 9 11 13 15 15 15 15 15 14 13 13 13 14 13 12 10 7 4 1 2 5 6 6 7 8 7 7 7 4 4 4 3 3 4 4 5 6 6 7 7 8 8
6 6 9 11 13 13 14 15 16 15 14 14 13 12 11 11 11 10 8 6 4 2 2 5 6 6 6 6 5 5 3 2 2 2 2 2 3 4 5 6 7 7 7 8
8 8 9 11 12 13 13 15 16 15 14 13 11 10 9 8 10 10 9 7 5 5 3 2 3 6 6 5 5 4 4 2 2 1 1 2 3 4 5 6 7 7 8 8
8 9 11 11 12 13 13 12 12 13 13 12 9 7 5 7 9 10 9 8 8 7 6 5 5 6 6 5 5 5 4 3 2 1 1 2 3 4 5 6 7 8 9 9
8 10 12 12 13 13 11 10 9 10 11 9 5 5 5 6 8 9 9 8 8 8 7 7 7 6 6 5 5 5 4 3 1 1 2 2 3 5 6 7 9 10 10 11
10 11 12 12 13 12 10 10 8 7 8 7 4 5 6 6 8 8 9 8 8 8 7 7 7 7 6 5 5 4 3 2 1 1 2 3 4 6 7 8 9 10 11 12
11 12 13 13 12 10 10 10 9 7 6 6 3 3 5 5 7 8 8 7 7 7 6 5 5 5 5 4 3 2 2 1 1 2 3 4 6 7 8 9 9 10 11 12
14 11 12 13 12 11 10 11 11 9 8 7 4 0 2 4 5 6 6 6 5 5 4 3 2 2 3 3 2 2 1 1 2 3 4 6 7 8 9 10 11 11 12 13
15 10 12 13 14 13 11 11 12 11 10 9 6 2 1 2 4 5 4 3 3 3 2 1 1 2 2 3 3 2 2 3 3 4 5 7 8 9 10 11 12 12 13 14
13 12 13 14 15 14 13 12 13 13 12 10 7 5 5 4 3 3 3 2 2 2 1 1 2 3 3 4 4 4 4 5 5 6 7 9 10 11 11 12 13 14 15 16
13 13 14 15 16 17 16 15 14 13 12 13 12 9 8 8 5 4 2 2 1 1 1 1 3 4 4 5 5 5 6 7 8 9 10 11 12 13 14 15 16 17 18 19
12 13 15 16 16 17 16 15 14 13 12 13 13 12 10 9 7 6 5 4 4 4 3 3 4 5 5 6 7 8 8 9 10 11 12 13 14 15 16 17 18 19 20 21
14 15 16 16 16 16 16 15 15 14 12 13 13 13 11 10 10 10 9 8 8 7 6 6 6 6 7 8 9 10 11 12 14 15 16 17 17 18 19 20 20 21 23 24
16 16 16 17 16 13 12 13 14 15 14 14 14 13 14 14 14 14 13 11 9 8 8 8 8 9 10 10 11 12 14 15 17 18 19 20 20 21 22 22 23 24 25 26
19 19 18 18 17 13 12 13 14 15 15 15 15 15 15 16 16 15 14 12 10 10 10 10 10 11 12 13 13 15 16 17 19 20 22 23 23 24 24 25 26 26 27 29
21 20 20 18 17 17 16 15 17 17 17 17 17 17 17 17 16 16 15 14 13 12 11 11 12 13 14 15 16 17 18 20 21 23 24 25 26 27 27 28 29 29 30 31
23 22 21 18 18 18 17 16 18 19 19 20 20 20 19 18 17 17 16 15 14 14 13 12 13 14 15 17 18 20 21 23 24 25 27 28 29 30 30 31 31 32 33 34
23 22 21 19 18 19 16 18 20 22 22 23 23 22 22 20 19 17 16 15 15 15 15 16 16 17 19 20 21 23 24 26 27 28 30 31 32 32 33 33 34 35 36 37
24 23 23 21 21 20 18 19 21 22 23 23 23 23 22 21 20 18 17 16 18 19 20 20 21 22 22 23 24 25 27 29 30 31 32 33 34 34 35 36 37 38 39 39
24 25 25 24 24 23 20 21 22 22 23 22 23 23 23 23 23 21 19 19 21 22 23 24 25 27 27 27 28 29 30 31 32 33 34 35 36 37 38 39 40 41 42 42
25 25 26 27 27 25 22 21 21 22 22 22 22 22 22 22 24 23 22 23 24 26 27 28 29 30 31 32 33 33 34 34 35 36 36 37 38 39 40 41 43 44 45 45
24 26 27 26 25 23 22 22 21 20 20 20 20 19 20 20 21 23 23 25 26 28 29 31 33 34 35 36 36 37 38 37 38 38 39 40 40 42 43 44 45 46 47 47
25 26 26 25 24 23 23 21 21 20 20 19 18 19 20 21 21 23 25 27 29 30 31 33 35 36 37 38 39 39 40 40 40 41 42 43 44 45 46 47 48 48 49 49
26 27 27 27 26 25 25 22 23 23 22 21 21 21 22 22 23 24 26 27 29 30 32 34 35 36 38 39 40 40 41 43 44 45 45 46 47 48 49 50 51 51 51 52
27 28 28 28 28 27 27 26 25 24 24 24 25 24 24 25 25 26 27 29 30 31 33 34 36 37 39 40 41 43 44 45 46 47 48 49 50 51 52 52 53 54 54 54
28 29 30 30 29 30 29 27 26 25 26 27 27 27 27 28 29 30 31 32 33 34 35 36 38 39 40 41 42 44 45 46 47 48 49 51 52 53 54 55 56 56 57 57

GEFSCGP_500_meanwind_066.txt.gz
Wind_Speed
7 8 9 10 11 12 13 14 14 15 15 15 16 15 15 14 13 10 7 3 1 4 7 9 11 12 13 13 12 12 10 9 7 5 4 2 1 1 2 2 3 4 5 5
8 8 8 9 11 13 14 13 13 14 14 16 14 14 13 13 11 9 7 4 2 2 5 8 9 10 10 12 13 11 9 7 6 5 4 2 1 1 2 2 3 4 4 5
7 8 8 10 11 13 14 14 13 14 14 14 13 12 12 11 9 8 6 5 3 3 4 6 7 9 10 11 12 11 8 8 6 4 3 2 1 1 2 3 3 4 4 5
8 8 8 10 12 14 14 14 13 13 13 12 12 11 10 10 9 8 6 5 4 5 4 4 6 9 11 12 12 10 9 8 6 5 4 3 2 2 2 3 3 4 4 4
10 9 9 10 12 14 14 14 13 12 11 11 11 11 10 9 8 7 6 5 5 5 4 5 7 9 10 11 11 10 9 7 6 5 4 3 3 2 3 3 3 3 3 4
11 10 10 12 13 14 14 13 12 12 11 10 10 10 9 7 7 6 4 4 4 4 5 5 7 9 9 10 9 8 7 7 6 5 4 3 3 3 3 3 3 3 3 4
12 11 12 14 15 14 14 13 13 12 10 9 9 8 8 7 6 5 3 3 3 3 4 5 5 7 7 7 7 7 7 6 6 5 4 4 4 4 4 4 4 4 4 5
14 13 14 16 15 15 14 13 14 13 11 9 8 8 7 7 6 5 4 3 1 1 1 2 3 4 5 5 6 6 6 6 5 5 5 4 4 5 5 5 5 6 6 7
15 14 15 16 15 14 14 13 14 15 13 11 9 8 8 8 7 7 6 5 4 3 2 2 2 3 4 5 5 6 6 6 6 6 6 6 6 6 6 6 7 8 9 10
16 15 14 14 13 14 15 15 15 16 16 13 9 7 8 8 8 8 7 7 6 5 5 5 5 5 5 6 7 7 8 8 8 8 8 7 7 7 8 8 9 10 11 12
16 16 14 13 13 14 16 16 16 16 16 14 10 8 9 9 9 9 8 8 8 7 7 8 8 8 8 8 9 9 10 10 10 10 10 10 9 9 10 11 12 13 14 15
16 15 14 13 13 14 16 17 17 17 16 15 13 9 10 10 10 10 10 10 10 10 10 10 10 10 10 10 11 11 11 11 12 12 12 12 12 13 13 14 16 17 17 18
14 13 12 12 13 14 15 17 18 18 17 16 14 11 11 12 11 11 11 11 11 12 12 12 12 12 12 12 12 13 13 13 13 14 14 15 15 16 17 18 19 20 21 22
15 14 14 13 14 14 16 18 19 18 18 17 15 13 13 14 13 13 13 13 13 13 13 13 13 13 13 13 13 14 15 15 16 16 17 17 18 19 20 21 22 23 24 25
16 16 15 15 15 16 17 18 19 18 18 18 16 16 15 15 15 14 14 14 15 14 14 14 14 14 14 14 15 15 16 17 18 18 19 20 20 21 23 24 25 27 28 29
17 17 17 17 17 19 18 18 19 19 19 18 18 17 16 16 17 17 16 16 16 15 15 15 15 15 15 15 16 17 18 19 20 20 21 22 23 24 25 27 28 29 30 31
19 19 18 18 19 20 19 19 20 20 19 18 19 18 18 18 18 18 18 18 18 18 17 17 17 17 17 17 18 19 21 21 22 23 24 25 26 27 28 30 31 32 34 35
20 19 19 20 20 21 19 18 19 19 19 19 19 20 20 21 20 20 21 21 20 20 20 19 19 19 19 20 20 22 23 24 25 25 26 28 29 30 31 32 33 35 37 38
20 20 21 21 22 20 19 20 21 22 21 20 20 20 21 21 21 22 23 22 22 22 22 22 23 22 22 22 23 24 26 27 28 28 30 31 32 33 35 36 36 38 40 41
21 21 22 22 22 21 19 20 21 23 22 21 21 20 20 22 23 22 22 22 23 23 24 25 25 24 24 25 26 27 29 30 31 32 32 34 35 37 39 40 40 41 43 45
21 21 21 21 21 21 20 21 21 22 21 20 20 20 19 20 22 22 21 22 22 23 23 25 26 25 25 27 28 30 31 32 34 35 35 36 38 40 42 43 44 45 46 47
21 21 21 21 21 20 20 20 21 21 20 20 19 19 20 21 22 21 21 21 21 21 23 24 25 27 28 28 30 32 33 35 36 37 38 39 41 42 44 46 46 48 49 50
22 22 22 21 21 21 21 21 21 21 20 20 20 20 21 22 22 23 22 21 22 22 24 25 26 28 30 31 32 34 36 37 38 40 41 43 44 45 46 48 49 50 51 52
24 24 24 23 22 23 22 22 21 21 21 22 22 23 23 23 22 21 21 21 22 23 25 26 28 30 31 33 34 36 38 40 41 42 44 45 46 48 49 50 51 52 53 54
25 25 24 24 24 24 23 23 23 23 23 23 23 23 22 21 21 22 23 24 25 26 27 29 30 32 33 35 37 38 40 42 43 44 46 47 48 50 51 52 54 55 56 58
25 25 25 25 25 25 25 26 26 25 25 24 24 24 24 25 25 25 26 27 27 29 30 31 33 34 36 37 39 40 42 43 45 46 48 49 51 52 54 55 56 58 60 61

GEFSCGP_500_meanwind_072.txt.gz
Wind_Speed
8 7 7 8 9 11 13 15 17 17 17 17 16 17 17 17 15 13 10 8 5 5 7 10 13 15 20 20 21 22 21 19 16 13 11 9 8 7 6 5 4 3 2 1
7 7 9 9 10 12 13 15 16 17 16 15 15 15 16 15 14 13 10 8 6 4 3 7 11 14 17 19 19 19 18 17 15 13 10 9 9 8 6 5 4 3 2 1
8 8 9 10 11 12 13 15 16 16 16 14 14 14 14 14 14 12 11 8 7 4 1 3 8 11 14 16 17 17 16 16 14 12 10 10 9 8 6 5 4 3 3 2
9 9 9 9 11 12 13 15 15 15 14 13 13 13 13 12 12 11 9 8 7 4 1 1 5 9 13 15 15 15 15 15 14 12 11 10 9 8 7 6 5 4 3 2
10 11 10 10 12 13 14 16 14 13 12 12 12 11 12 10 11 10 9 7 7 5 3 2 4 8 11 12 13 14 14 13 12 12 10 10 9 8 7 6 5 4 4 3
11 11 12 12 13 14 16 16 14 12 11 11 12 10 10 9 9 9 8 6 6 5 3 3 3 6 10 12 13 13 13 12 12 11 10 10 9 8 7 6 6 5 5 4
11 12 13 13 13 14 16 14 12 10 10 11 12 10 9 9 7 7 7 6 5 4 4 3 4 6 8 10 12 12 12 12 11 10 10 9 8 8 7 7 6 6 6 6
13 13 14 14 14 16 15 12 10 9 8 10 12 9 10 9 8 6 5 5 4 4 4 2 3 4 7 8 10 11 11 11 10 10 9 9 8 7 7 7 7 7 7 8
13 15 16 15 15 15 13 11 11 10 10 9 9 10 10 10 9 6 5 4 3 3 3 2 1 2 4 6 8 9 10 10 10 10 9 9 8 8 8 8 8 8 9 9
16 17 17 17 16 14 13 13 11 8 9 8 9 9 9 9 8 7 6 5 4 3 2 1 1 3 4 6 7 8 9 10 10 10 10 10 10 10 10 10 10 11 11 12
17 17 16 16 15 15 14 13 11 10 10 8 8 9 11 9 9 8 7 7 6 6 5 4 4 4 5 7 8 9 10 10 11 11 12 12 12 13 13 13 14 14 15 16
16 16 16 15 14 14 13 12 11 10 11 10 8 10 11 10 10 10 9 9 8 8 8 7 7 7 7 8 9 10 11 12 13 13 14 15 15 16 16 17 17 18 19 20
16 16 16 15 15 14 13 11 11 10 10 9 7 9 13 12 11 11 11 11 10 10 10 10 10 10 10 10 11 12 13 14 15 16 17 17 18 19 20 21 21 22 23 23
17 17 16 14 15 15 14 13 12 11 9 9 9 11 13 14 13 13 12 13 12 12 12 12 12 13 13 13 13 14 15 16 17 18 19 20 21 21 22 23 24 25 26 27
19 18 17 17 18 16 16 15 14 13 12 11 11 12 14 14 14 14 14 14 14 14 14 14 14 15 15 16 16 16 17 17 18 19 20 21 22 23 24 26 27 28 28 29
20 19 18 18 18 18 17 16 15 14 14 13 12 13 13 14 15 16 15 15 16 16 16 17 17 17 18 19 20 20 20 20 21 22 23 23 24 25 26 28 29 29 30 31
22 20 19 18 19 18 16 15 16 16 15 15 14 15 14 15 16 17 18 18 18 19 20 20 20 20 21 22 23 23 23 23 24 24 26 27 27 28 29 30 31 32 32 33
23 21 20 19 20 19 17 17 17 18 17 17 17 17 16 17 17 19 20 20 20 21 22 23 24 24 25 25 25 26 26 26 27 28 29 30 31 31 32 33 33 35 35 36
25 23 22 21 20 18 19 18 19 18 18 18 19 19 19 19 20 20 21 21 22 23 25 26 27 28 29 29 29 29 30 30 31 31 32 32 33 34 35 36 36 37 38 38
26 23 22 22 21 20 21 19 18 18 18 18 18 19 20 20 21 21 21 23 24 25 27 29 30 31 32 31 32 32 33 34 34 34 34 34 35 36 37 38 39 40 40 41
26 23 23 22 21 21 21 19 18 18 18 18 18 19 19 20 21 22 23 24 25 26 27 29 30 32 33 33 33 32 33 35 36 37 37 37 38 38 40 41 42 43 44 44
25 24 24 23 22 22 21 20 20 19 19 19 19 19 19 20 21 22 24 24 26 27 28 30 31 31 32 32 33 34 35 36 37 38 39 39 40 41 42 44 45 46 46 47
26 24 23 23 23 23 21 21 21 21 21 21 20 21 21 21 22 23 24 25 26 28 29 31 32 33 32 32 33 34 35 36 37 39 40 40 42 43 44 45 46 47 48 49
22 23 23 22 23 23 23 22 22 22 23 23 23 23 23 24 24 25 26 26 27 28 29 30 31 31 31 32 33 34 35 36 38 40 40 42 43 44 45 46 48 49 50 51
23 23 23 24 24 23 24 24 24 24 25 25 25 25 25 26 27 27 27 27 27 27 27 26 27 28 30 32 33 34 35 36 38 39 41 42 44 45 46 48 49 51 52 54
20 20 21 22 22 24 24 24 24 25 25 26 26 26 26 27 28 28 29 29 29 29 28 28 29 30 32 33 34 35 36 38 39 41 42 44 45 47 48 50 52 54 56 57

GEFSCGP_500_meanwind_078.txt.gz
Wind_Speed
8 5 4 6 8 10 11 11 14 16 18 20 18 17 17 18 19 19 18 17 13 10 8 9 11 13 16 18 20 19 19 19 18 16 15 13 12 11 9 8 7 5 4 3
8 5 4 6 10 11 12 13 15 17 19 19 16 15 16 17 18 19 18 16 13 10 7 8 9 11 14 17 20 19 18 18 17 16 14 13 12 10 9 8 7 6 5 3
7 5 6 11 12 11 12 14 16 18 17 17 15 14 16 17 17 17 18 16 13 11 8 7 7 9 12 15 17 18 19 17 17 16 14 13 11 10 9 8 7 7 6 4
8 7 10 14 13 12 14 15 16 16 15 16 12 14 16 16 17 17 16 14 13 11 10 7 5 4 7 11 14 16 17 16 15 14 14 13 11 11 10 9 8 7 6 5
8 8 11 14 13 13 15 14 14 15 16 17 11 9 15 15 18 19 17 15 12 11 9 7 4 1 5 8 11 14 16 15 15 15 14 13 12 12 10 9 9 8 7 6
11 11 13 15 14 14 15 14 15 18 19 19 8 6 12 14 17 19 17 14 11 9 8 6 5 2 2 5 9 12 14 14 14 14 13 13 13 11 10 10 9 8 8 7
9 10 11 13 14 14 15 16 17 18 21 22 11 6 11 14 16 17 15 14 9 8 6 5 4 3 1 3 7 10 13 13 13 13 13 13 12 11 11 11 10 9 9 8
9 10 10 13 14 13 15 15 16 18 18 20 17 10 8 11 14 15 14 11 9 7 6 5 3 3 2 4 7 9 11 12 12 12 12 12 12 11 11 11 11 10 10 9
12 13 13 15 15 15 16 15 15 17 16 16 19 14 10 8 10 12 13 11 9 7 6 5 4 2 2 3 5 8 9 10 10 10 10 11 11 11 12 12 12 11 11 11
14 16 15 16 18 17 16 15 14 14 15 14 17 16 14 10 10 12 13 11 10 8 6 5 4 2 1 2 3 6 7 8 9 10 10 11 12 12 13 13 13 13 13 13
18 20 18 19 20 18 18 15 14 14 14 14 17 19 15 12 12 12 12 11 10 9 7 5 4 3 1 1 2 3 5 7 8 10 11 12 12 13 14 14 14 14 15 15
23 24 24 22 22 22 20 17 16 16 14 13 14 20 17 13 13 11 11 12 11 9 9 7 6 6 5 5 5 6 7 8 10 11 12 13 14 15 15 15 16 16 17 17
27 29 28 23 22 24 21 17 16 15 15 13 13 19 19 16 15 12 12 12 12 11 10 9 9 9 8 7 8 8 9 10 11 12 13 14 15 15 16 17 18 19 20 20
31 33 31 26 25 26 20 16 14 14 13 14 14 18 19 17 17 16 15 15 13 13 13 12 11 11 11 10 11 11 12 13 13 14 15 16 16 17 18 19 20 21 22 23
33 34 32 27 25 24 18 13 13 14 14 16 17 21 22 21 19 18 19 18 16 15 14 14 14 13 12 13 14 15 15 15 16 17 18 19 19 20 21 22 22 23 24 25
35 35 33 30 25 23 19 14 14 17 17 18 20 24 25 23 21 20 20 19 18 18 16 16 16 16 16 16 16 16 17 19 20 20 21 21 22 23 23 24 25 25 26 26
37 37 34 32 26 25 24 20 19 20 20 21 22 25 26 25 22 21 20 19 19 20 19 20 19 19 19 19 19 20 20 21 23 24 24 25 25 26 25 26 27 28 29 30
39 36 34 32 29 29 26 25 24 23 24 25 25 26 27 25 23 22 22 21 21 22 22 22 22 22 22 22 22 23 23 25 26 27 27 28 28 29 30 30 31 32 33 33
40 38 34 32 30 30 28 28 26 25 26 26 25 26 25 24 24 23 22 22 22 22 22 23 23 23 24 24 26 26 27 28 29 30 32 32 32 33 34 34 35 35 35 36
39 37 34 33 31 30 30 30 28 28 28 26 25 26 26 24 23 21 21 22 22 22 23 23 25 26 26 27 28 28 30 31 32 34 35 35 36 36 36 36 37 38 38 39
33 35 33 32 32 32 33 32 28 25 25 24 24 24 25 25 23 22 21 21 22 23 24 25 25 27 28 29 30 31 32 34 35 36 36 37 37 37 37 38 38 38 39 40
33 36 36 35 33 34 33 30 27 25 25 24 24 25 24 25 24 23 23 23 23 23 24 25 27 28 29 30 32 33 35 36 37 37 37 38 39 39 39 39 39 39 41 41
32 33 35 35 36 35 35 33 30 27 23 23 25 26 25 26 26 26 25 25 25 25 26 27 28 29 30 31 33 34 35 37 37 37 38 38 39 40 39 39 39 40 40 41
25 28 29 28 29 30 32 32 28 23 24 25 25 26 26 26 27 26 27 27 27 27 28 28 29 30 31 32 33 33 34 35 36 37 37 36 37 37 37 38 38 40 42 43
20 18 21 25 27 26 25 25 21 21 23 24 25 25 26 26 26 27 28 28 28 29 29 30 31 31 31 32 33 34 34 35 36 36 36 37 37 38 38 39 40 42 43 44
17 20 21 21 21 21 21 20 20 20 21 23 25 26 26 26 27 28 28 29 29 29 31 31 32 33 33 33 33 34 35 36 37 37 37 38 39 40 41 42 43 44 46 47

GEFSCGP_500_meanwind_084.txt.gz
Wind_Speed
12 10 9 9 8 7 7 9 13 16 18 21 22 22 22 20 18 17 17 17 17 15 13 9 6 7 7 11 13 17 17 17 18 18 17 16 15 13 12 11 9 8 7 6
12 11 11 10 9 7 7 9 13 17 20 22 24 24 21 18 15 14 14 15 15 14 12 10 6 4 4 8 12 15 17 18 19 18 17 16 15 14 13 12 10 9 9 7
11 12 13 12 10 8 6 10 14 18 20 21 22 20 19 18 15 12 12 14 14 13 11 9 5 3 4 8 12 14 14 16 18 18 17 17 15 14 14 13 12 11 10 9
12 15 15 14 12 9 7 10 15 18 20 20 20 20 17 16 11 9 10 11 12 13 11 9 5 3 3 6 10 14 15 16 17 17 18 17 15 14 14 14 13 12 11 10
11 15 16 15 12 10 9 11 15 18 19 20 20 20 17 14 8 6 8 10 11 11 11 10 7 3 1 4 8 12 13 16 17 17 16 16 15 15 15 14 13 13 12 11
13 15 15 14 13 11 10 12 15 18 19 20 19 20 17 14 6 5 7 9 11 10 10 10 7 5 2 3 6 9 12 15 17 17 16 16 16 16 15 15 14 14 13 12
15 15 15 14 13 10 11 13 16 17 18 19 19 19 16 12 6 6 7 9 10 10 9 9 7 5 3 2 5 9 12 14 16 17 16 17 16 16 16 15 14 14 13 13
15 14 15 16 13 10 10 13 16 18 19 20 20 18 14 11 8 7 8 8 9 9 7 8 6 4 4 3 4 7 11 13 14 15 16 16 16 16 15 15 15 15 14 14
15 14 16 17 15 13 12 13 16 18 19 20 19 17 14 11 9 8 8 6 6 8 6 5 6 5 4 3 4 7 10 12 13 15 15 15 15 15 15 15 15 15 15 15
16 16 17 18 18 16 15 15 17 18 20 21 19 17 14 13 11 9 7 6 5 6 6 3 3 3 2 2 2 6 8 10 11 13 14 14 14 15 15 15 16 16 16 16
21 20 18 20 21 19 18 18 17 19 21 21 20 18 15 13 11 10 6 6 6 6 5 4 3 2 2 0 1 4 7 9 10 11 13 14 15 15 16 16 16 17 17 18
27 26 23 22 23 23 22 21 20 21 21 21 21 19 15 14 13 10 7 7 7 6 5 4 3 2 2 1 2 3 5 7 8 10 12 13 14 15 16 17 18 18 19 20
31 30 29 27 26 25 25 24 23 23 22 22 21 19 16 15 13 10 9 8 6 6 5 5 4 4 3 3 4 4 5 7 8 9 11 13 14 15 17 18 19 20 20 21
35 34 34 32 29 28 28 26 25 24 24 23 21 19 17 16 15 12 11 9 7 6 6 6 5 6 5 6 7 7 8 9 10 11 12 14 15 16 17 19 19 21 22 23
39 39 38 37 35 33 31 29 27 26 24 24 22 20 17 17 15 13 12 11 10 9 8 7 7 7 8 8 8 9 10 11 12 12 14 16 17 18 19 20 21 22 23 24
42 42 42 40 38 38 36 33 30 28 25 25 24 22 19 18 16 15 14 13 12 10 9 8 8 8 8 9 10 11 11 13 14 14 15 16 17 17 18 20 22 23 24 25
44 44 44 43 41 40 39 35 32 29 27 26 25 22 20 20 19 16 15 14 12 11 10 10 11 11 11 12 13 14 14 15 16 17 17 17 18 19 20 22 22 23 24 25
45 47 47 46 44 45 40 37 34 33 31 29 27 25 24 22 20 17 16 15 15 14 13 13 12 13 13 14 15 15 16 17 18 18 19 20 21 22 24 24 24 25 26 27
41 44 47 48 49 47 43 39 36 34 32 30 28 28 26 24 22 19 18 17 16 15 15 14 14 15 15 16 16 17 17 19 20 21 23 23 24 25 25 25 26 28 29 31
36 41 44 47 48 47 42 40 37 35 35 31 29 29 28 27 23 21 20 19 17 16 16 15 15 16 17 17 18 19 20 21 22 24 25 26 27 27 28 28 29 30 33 34
33 37 41 45 46 46 43 42 39 38 35 32 31 31 30 28 25 22 21 20 18 17 16 15 16 17 18 19 20 21 22 23 25 26 27 27 29 30 31 32 32 33 34 35
29 33 36 39 43 44 41 39 38 36 34 33 31 31 29 27 26 24 21 20 19 18 17 17 18 19 19 20 21 23 24 25 27 28 29 30 31 32 33 34 35 35 36 36
24 27 30 33 36 37 36 37 36 33 32 30 29 27 25 25 24 24 22 20 18 18 18 18 19 20 21 22 23 25 26 28 30 31 31 33 34 34 35 35 35 36 37 38
18 21 23 25 25 29 30 31 31 29 26 25 26 24 23 24 22 21 20 19 19 19 20 20 21 21 23 24 25 26 28 29 31 32 33 34 35 36 36 36 36 37 37 39
11 13 17 19 21 22 25 24 23 23 23 23 22 22 23 21 19 18 17 17 17 18 19 20 21 22 24 25 26 28 29 31 32 33 34 34 35 36 37 38 38 39 39 40
8 9 12 15 15 16 16 15 15 17 19 19 17 18 18 17 17 17 17 18 18 19 20 21 23 24 25 27 28 29 30 31 32 33 34 35 36 37 38 39 39 40 41 42

GEFSCGP_500_meanwind_090.txt.gz
Wind_Speed
18 16 15 16 16 15 15 14 14 15 16 15 14 16 18 19 19 19 20 19 18 17 15 12 11 10 11 11 14 18 19 18 20 22 21 21 21 19 17 15 13 12 10 9
18 17 18 18 16 16 16 15 15 16 15 15 14 15 18 20 19 19 19 17 16 16 15 12 10 9 9 10 12 16 19 19 19 21 22 22 21 20 18 16 14 13 12 10
18 18 21 18 17 17 16 16 15 16 15 14 15 15 18 19 18 18 16 14 13 14 14 11 8 6 5 7 10 14 18 20 21 22 22 22 21 19 18 16 15 13 12 11
18 21 21 18 17 17 15 16 16 15 15 14 15 16 15 17 17 16 14 13 13 14 13 11 8 5 4 7 10 13 17 20 21 21 22 22 21 19 18 17 15 14 12 11
19 21 21 18 17 17 15 16 16 16 15 13 14 15 14 15 16 15 14 13 12 12 12 10 8 5 4 6 10 12 16 19 20 21 21 22 21 19 18 17 15 14 13 12
20 22 20 18 17 17 16 16 17 16 14 13 13 14 14 15 15 14 13 12 12 11 10 10 8 4 3 4 8 12 14 16 19 21 22 21 20 20 18 17 15 15 14 13
20 21 19 17 17 17 17 17 17 15 14 12 12 13 13 15 14 13 13 12 11 10 9 8 7 4 1 3 7 11 14 16 19 21 21 21 20 19 18 17 15 15 15 14
18 18 18 16 16 17 18 17 17 16 13 11 10 11 13 13 12 12 13 12 11 9 7 6 5 3 1 2 6 9 13 16 17 18 20 20 20 18 18 17 16 16 15 15
17 17 18 18 18 19 19 19 18 17 16 13 11 10 11 11 10 12 12 11 9 8 6 5 3 3 1 1 3 7 11 13 15 16 17 18 18 18 18 17 16 16 16 15
18 18 18 19 20 20 21 20 20 19 19 16 12 11 11 10 10 12 11 10 9 8 6 5 3 2 1 1 1 5 9 12 13 14 15 15 17 17 17 16 16 16 16 16
21 19 19 21 21 21 22 21 21 20 20 18 15 11 12 11 11 11 10 9 9 8 7 6 4 2 1 0 1 4 7 9 11 12 13 14 14 15 15 15 15 16 16 16
24 22 21 23 24 25 25 24 23 22 20 19 18 13 13 12 11 11 10 10 9 8 8 6 5 3 2 2 1 2 5 7 9 10 10 12 13 14 15 15 16 17 17 17
28 27 25 25 26 26 26 26 25 25 24 22 19 16 14 13 12 11 11 10 9 9 9 7 5 4 4 3 3 3 4 6 8 9 10 11 12 13 15 16 17 17 18 19
33 32 30 29 28 28 28 28 27 27 26 24 20 18 16 15 13 12 12 12 11 11 10 9 7 5 6 5 5 5 5 6 7 9 10 11 12 13 15 16 17 18 19 20
37 36 35 34 32 31 30 29 29 29 27 26 23 20 18 17 16 14 13 14 13 13 12 10 9 8 7 7 7 8 8 8 8 9 10 11 12 13 15 17 18 19 20 22
40 41 40 39 37 36 35 32 30 30 29 28 25 22 20 20 18 17 16 16 15 14 13 12 12 11 10 10 10 10 11 11 12 12 12 13 14 15 15 17 18 20 22 23
42 43 43 43 42 42 40 35 34 33 31 31 29 25 24 22 20 19 18 17 16 16 15 14 15 14 13 13 13 12 13 14 14 14 15 16 15 16 17 18 19 22 23 25
42 44 45 45 44 46 41 38 37 36 34 32 30 28 27 25 23 22 21 20 19 18 17 16 17 16 16 16 15 15 15 16 16 17 18 18 18 19 19 20 21 23 25 26
39 41 44 46 46 45 42 40 38 38 36 33 31 28 27 27 26 24 23 23 22 22 20 19 19 19 18 18 18 18 18 17 17 17 18 19 20 21 21 22 23 24 25 27
35 36 39 41 43 43 40 37 37 36 35 32 31 30 29 29 29 27 26 25 24 24 23 20 21 21 21 20 20 20 20 19 19 19 20 20 20 21 22 24 26 27 28 30
30 32 34 35 38 39 36 35 34 35 33 31 31 31 30 30 31 30 30 28 26 26 25 23 22 21 22 22 22 21 20 20 21 22 22 22 23 24 26 27 29 30 31 32
27 28 30 31 33 34 33 32 32 32 31 31 31 31 31 31 31 31 31 30 29 28 27 25 24 22 22 23 23 23 22 22 23 24 24 25 26 28 29 29 31 32 33 34
24 26 27 28 29 29 30 30 30 30 29 29 30 31 32 31 31 32 32 31 29 27 27 26 25 24 24 23 23 24 24 24 25 25 26 27 28 30 31 32 33 34 35 36
21 23 24 24 24 26 26 27 27 27 27 26 27 27 28 28 28 29 30 29 27 26 26 25 24 25 24 24 24 25 26 25 26 27 29 30 31 32 33 35 35 37 38 38
18 19 20 20 20 20 21 22 22 23 22 22 23 24 25 27 27 26 26 26 26 25 25 24 24 24 24 25 25 25 26 27 28 29 30 31 32 33 34 36 36 37 38 39
15 15 16 16 16 16 16 16 18 19 19 20 20 21 22 23 25 25 24 23 22 23 24 23 22 23 23 23 24 25 26 27 29 29 31 32 34 35 36 37 38 39 41 42

GEFSCGP_500_meanwind_096.txt.gz
Wind_Speed
18 17 16 16 15 13 12 11 11 12 12 11 12 14 16 17 17 16 16 16 15 13 12 11 11 10 9 9 11 15 18 21 22 23 23 24 23 21 20 19 16 14 12 10
19 18 18 18 15 13 12 11 11 12 12 11 11 13 15 15 16 15 15 15 14 13 11 10 10 9 8 9 11 13 17 20 21 21 23 24 23 22 21 20 17 15 13 11
20 20 20 18 16 13 12 12 12 11 10 10 11 12 14 15 15 15 15 15 14 13 13 12 10 8 8 9 10 13 16 19 21 22 22 23 22 22 22 19 18 16 14 12
21 21 20 18 16 14 13 13 12 10 9 10 11 11 14 15 16 15 15 15 14 14 13 11 9 7 7 8 10 12 15 18 21 23 22 22 22 22 22 20 18 17 15 14
20 20 19 18 16 15 14 14 12 10 9 9 11 11 13 15 16 15 14 14 14 14 12 11 9 6 6 6 8 11 14 17 20 23 22 22 22 23 23 20 18 17 16 15
20 19 19 18 17 16 14 13 12 10 9 9 10 10 11 14 14 13 13 14 13 13 11 11 9 6 4 4 7 10 13 15 18 21 21 22 22 23 23 21 19 18 17 15
18 18 18 17 17 15 15 13 11 9 9 10 11 10 11 13 12 11 13 13 12 12 11 11 9 7 5 4 5 9 12 14 15 18 20 20 22 22 22 21 20 19 18 16
17 17 17 17 16 17 16 15 13 11 10 10 11 10 11 11 11 11 12 13 12 12 11 11 10 7 5 4 5 8 10 12 14 17 19 20 20 20 20 21 20 20 18 17
16 17 16 17 17 18 18 17 15 15 13 10 10 11 11 11 11 11 12 12 11 11 12 11 10 7 5 4 4 6 8 11 13 15 18 19 20 20 20 21 20 20 19 17
17 17 17 17 17 18 19 18 18 16 13 12 11 11 11 12 12 11 11 12 11 10 10 10 10 8 6 4 3 4 7 10 12 14 17 18 19 19 19 19 19 20 19 17
19 18 17 18 18 18 19 19 18 17 16 14 12 12 13 12 11 11 11 11 10 10 9 9 9 8 6 4 3 3 5 8 10 13 15 16 17 18 19 19 19 19 19 18
22 21 20 19 20 20 21 20 20 18 17 16 14 13 14 12 11 11 11 10 10 9 9 10 9 8 6 5 3 2 3 5 8 10 12 13 14 16 16 17 18 19 19 19
26 25 22 20 21 23 23 22 22 21 21 19 16 15 16 12 11 11 11 11 11 10 9 9 10 8 7 5 5 4 3 5 6 8 11 12 12 13 14 16 17 18 18 19
29 28 25 22 21 23 23 23 23 23 22 21 19 17 18 15 13 12 11 11 11 10 10 9 10 9 8 6 6 6 6 6 8 9 10 11 12 13 14 15 17 17 18 19
31 30 29 28 28 27 25 25 24 24 23 23 21 20 20 18 16 15 14 13 12 11 11 10 10 9 9 8 8 8 8 8 9 10 10 11 12 13 13 14 16 17 17 18
33 33 31 30 30 30 29 27 27 27 26 26 25 23 22 21 19 18 17 15 14 13 13 12 12 11 10 9 9 9 9 9 10 11 11 12 13 14 14 14 15 17 18 20
34 34 33 31 32 33 32 29 29 28 27 27 27 26 25 23 23 21 20 19 18 17 16 15 14 13 13 12 12 11 11 11 11 12 13 14 14 15 15 16 17 18 20 21
34 35 35 34 35 37 31 32 30 30 30 30 30 29 27 26 26 25 24 23 21 19 18 17 16 15 15 15 16 16 15 15 15 15 16 16 16 17 18 18 19 20 21 23
32 33 34 35 35 36 33 33 31 31 31 31 31 30 29 28 28 28 27 26 24 22 21 20 19 18 18 18 19 19 19 18 18 18 19 19 19 20 21 21 21 22 23 23
30 31 33 34 34 34 32 33 30 31 32 31 31 31 30 30 30 30 29 28 27 26 25 24 23 22 22 21 21 22 22 22 21 21 22 22 23 23 23 23 23 23 25 26
27 29 30 30 32 32 32 30 29 31 31 29 29 30 30 31 32 31 30 30 30 29 28 27 25 25 24 24 23 23 24 25 25 24 25 25 25 25 24 25 26 27 28 29
25 26 27 28 29 30 29 27 29 29 28 28 28 29 30 31 31 31 31 32 31 31 30 30 29 28 27 27 27 27 28 28 28 28 27 27 27 27 27 28 28 29 30 31
24 25 26 27 27 28 27 27 27 27 28 28 28 29 30 31 31 31 31 31 32 32 31 31 31 31 29 29 30 30 31 30 30 29 29 29 28 28 29 30 31 32 32 33
23 23 24 24 24 25 25 25 25 26 26 27 28 28 30 31 31 31 31 31 32 33 33 32 32 32 31 31 31 32 31 31 30 29 29 29 30 30 31 31 32 32 33 35
22 22 22 22 22 23 23 23 24 24 24 25 26 27 28 28 29 29 29 30 30 30 29 29 30 30 31 30 31 31 31 30 31 30 29 29 29 30 31 32 33 34 35 37
19 20 20 20 21 21 20 21 22 22 22 23 25 25 26 26 27 28 28 27 27 27 28 28 29 29 29 28 28 29 30 29 28 28 27 28 29 30 31 33 34 35 37 39

GEFSCGP_500_meanwind_102.txt.gz
Wind_Speed
17 15 14 11 10 10 11 13 14 14 14 16 16 15 17 18 20 21 22 21 21 20 19 17 16 15 14 12 11 11 11 13 16 16 16 18 18 19 19 19 18 16 14 11
18 15 13 12 11 13 16 16 14 15 14 15 17 14 16 18 19 20 21 20 20 20 19 17 16 14 13 11 10 10 10 12 14 15 16 17 18 19 19 19 18 16 15 12
18 15 14 15 14 15 16 15 14 15 15 15 16 15 17 18 20 18 20 19 20 19 18 17 15 13 12 11 10 10 10 11 13 15 16 17 18 19 19 19 19 18 16 13
18 14 15 17 17 16 15 14 15 16 16 15 15 17 17 19 18 18 19 19 19 18 18 17 15 13 12 10 9 10 11 11 12 14 16 18 18 18 19 19 19 18 16 14
17 15 16 18 17 16 15 15 16 16 16 15 15 15 15 16 18 19 18 19 18 17 16 15 14 13 11 10 9 10 9 10 12 14 15 17 18 18 19 19 19 18 17 16
18 16 17 17 16 17 15 16 16 14 14 16 14 14 13 14 18 19 18 18 17 16 16 15 14 13 11 9 9 8 9 9 11 13 14 16 17 17 18 18 18 18 17 16
17 16 17 18 17 15 14 15 13 12 15 17 16 16 12 11 17 18 18 18 16 15 15 14 13 13 10 8 7 7 8 9 10 12 13 14 16 17 18 19 19 18 18 16
14 14 14 16 16 14 14 15 14 14 17 20 19 14 9 10 15 17 17 16 15 14 14 13 13 12 11 8 7 5 6 9 10 11 12 13 15 17 18 19 19 19 18 17
10 12 13 15 16 15 14 15 14 17 17 21 20 15 9 12 14 16 15 15 14 14 13 13 12 12 11 9 7 5 6 8 9 10 12 13 14 16 17 18 19 19 18 18
18 16 13 15 16 15 15 15 15 18 18 18 18 19 16 15 13 15 16 14 14 13 13 12 12 11 11 9 7 6 6 8 9 10 12 12 13 15 17 17 18 18 18 19
21 21 17 16 16 14 14 15 17 18 18 18 19 22 19 15 12 13 16 17 15 14 12 12 12 11 12 10 7 5 5 5 7 9 10 11 12 14 17 17 17 18 18 19
22 22 21 19 17 16 15 17 18 19 19 20 19 22 21 14 12 15 16 18 17 14 12 11 11 11 11 10 8 6 5 4 5 6 7 8 11 13 14 16 16 17 18 19
26 26 25 21 18 18 19 19 19 20 21 20 19 23 22 15 15 14 16 18 18 16 13 11 11 11 11 9 8 7 6 5 3 4 6 7 9 12 13 13 14 15 17 18
31 30 27 23 20 23 26 24 23 22 22 21 20 23 26 23 21 18 15 16 17 17 14 12 12 11 11 10 8 7 6 5 4 5 6 7 9 10 10 11 12 14 16 17
33 33 31 28 26 25 26 24 24 25 23 23 23 25 28 28 25 22 18 18 18 18 16 14 12 12 11 11 9 8 7 6 5 5 5 6 8 9 10 11 12 13 15 16
33 34 33 31 28 27 29 26 22 23 22 22 24 26 27 29 27 23 21 21 20 19 18 17 15 14 13 12 11 9 8 8 8 8 8 9 10 11 12 13 14 14 15 16
30 32 33 32 28 28 29 26 23 22 22 23 25 28 32 31 28 27 25 24 22 22 21 20 19 17 16 15 14 12 11 10 11 11 12 12 12 13 14 15 16 16 17 18
32 31 31 31 31 32 29 27 26 25 26 27 31 34 36 36 36 35 32 31 29 27 25 24 22 20 19 18 16 15 13 13 13 13 13 14 15 16 17 17 18 19 19 20
32 32 31 31 30 31 29 29 31 31 30 32 36 39 38 37 36 37 35 34 32 31 29 27 26 24 23 21 20 19 18 17 16 16 16 17 18 18 18 19 20 21 21 22
32 33 32 31 31 29 27 29 31 33 33 35 36 37 36 36 36 36 35 34 34 33 32 31 29 28 26 25 23 23 22 20 20 19 19 20 20 20 21 22 23 24 25 26
28 29 29 30 30 28 31 33 33 33 36 36 35 35 37 38 38 37 36 36 35 34 34 33 32 31 29 27 26 25 25 24 23 23 23 24 24 24 25 25 26 27 28 29
27 27 27 27 27 29 34 34 35 35 35 35 36 35 35 36 37 37 37 37 35 36 35 34 33 32 31 30 29 29 28 28 27 27 27 28 28 28 29 29 29 30 32 32
30 30 30 29 28 31 33 33 34 35 36 36 36 34 34 35 35 36 36 36 36 35 36 35 35 34 33 33 32 31 30 30 30 30 30 30 31 31 32 32 33 34 35 35
28 27 28 29 29 31 31 32 33 34 34 33 33 33 33 34 34 34 35 35 35 35 34 34 35 34 34 34 34 32 31 31 32 32 32 33 33 33 33 34 35 36 36 35
26 27 26 27 29 31 31 31 31 32 31 31 31 31 31 32 33 32 33 33 33 33 34 33 34 34 34 34 34 32 31 31 32 32 33 33 33 33 34 34 34 33 33 33
27 26 26 27 28 29 28 28 29 29 29 29 29 29 29 30 30 30 30 30 30 31 31 31 31 32 32 33 33 33 33 32 32 32 32 32 33 32 32 32 31 31 32 33

GEFSCGP_500_meanwind_108.txt.gz
Wind_Speed
15 13 13 14 13 14 15 13 11 10 9 12 13 16 17 18 20 21 20 19 18 19 17 15 14 13 12 10 9 7 9 8 9 11 12 15 17 18 18 17 17 15 15 14
15 14 15 15 14 15 15 13 11 12 12 14 16 18 18 19 20 20 18 17 16 16 15 15 14 13 12 11 10 7 6 8 9 12 12 14 15 17 17 18 18 17 15 14
16 16 17 16 16 17 14 12 12 13 14 16 19 20 19 18 19 18 15 14 14 14 13 14 14 13 11 10 8 7 5 6 9 12 13 13 14 15 16 17 18 17 16 15
17 17 18 17 17 16 14 12 15 16 17 18 20 21 19 19 17 16 14 12 12 12 12 12 13 13 11 9 7 6 5 6 9 11 13 14 14 15 17 17 18 17 17 17
16 18 19 18 16 15 13 14 16 18 19 19 19 20 19 18 17 15 14 10 11 11 11 12 12 12 10 8 5 5 6 7 8 11 12 14 15 16 17 18 18 18 17 17
17 18 19 18 17 15 14 15 17 19 19 19 17 18 17 17 16 16 13 11 10 10 11 11 12 12 10 7 5 4 5 7 8 10 12 13 15 16 18 18 19 19 18 18
18 17 17 16 15 13 14 16 17 17 17 15 16 18 17 17 18 17 13 9 7 9 11 10 11 11 9 7 5 4 4 6 7 10 12 13 14 16 18 19 19 20 20 20
17 15 15 14 12 11 11 14 16 17 15 14 16 17 16 17 17 15 12 7 5 7 9 10 10 10 9 8 6 5 5 6 8 9 11 12 13 16 17 18 19 19 21 21
17 16 16 15 13 12 12 14 15 17 17 17 17 16 14 14 13 11 9 7 5 6 7 9 9 10 9 7 6 5 4 4 6 8 11 13 13 15 16 17 18 19 21 21
17 17 18 17 15 13 12 12 15 17 18 19 18 17 16 14 12 10 9 7 6 5 5 6 8 9 9 8 7 6 4 4 5 7 9 11 13 14 16 18 18 19 21 21
17 18 19 19 17 14 13 13 15 17 18 20 20 19 17 17 14 14 11 8 7 6 6 7 7 8 9 8 7 6 4 4 5 6 8 9 11 12 15 17 18 18 19 20
20 20 21 21 19 18 17 16 17 18 19 20 21 20 20 19 17 15 12 9 7 7 7 7 7 7 7 8 7 6 4 4 5 6 7 9 11 12 13 15 17 17 17 18
24 25 25 25 24 23 21 21 22 22 22 22 22 22 22 20 18 16 13 10 8 8 7 8 7 6 7 6 7 6 5 5 5 5 5 8 9 11 11 13 15 16 16 17
29 29 29 28 28 27 27 26 26 26 26 25 25 23 23 23 20 18 15 12 10 9 9 9 8 7 7 7 7 7 6 5 4 4 5 6 8 9 11 11 13 15 16 17
36 34 32 31 31 31 31 30 30 29 29 28 27 25 25 25 23 22 18 15 13 12 11 11 11 10 9 8 8 7 6 5 4 5 6 7 8 9 11 11 12 13 14 15
40 39 36 35 33 33 33 33 33 33 32 32 30 30 28 27 26 24 21 19 18 16 14 15 15 13 11 10 9 9 8 8 7 7 7 8 8 9 10 12 13 14 14 15
42 40 38 36 34 34 35 35 37 37 35 33 33 32 31 30 28 26 23 21 19 19 19 19 16 14 13 12 12 12 11 10 9 9 9 8 8 9 10 11 12 14 15 14
44 42 39 37 34 34 32 35 37 39 38 34 33 32 32 30 29 28 25 23 22 22 23 21 19 17 16 15 15 14 13 12 12 11 11 11 11 11 12 12 13 13 14 16
43 42 40 38 35 33 32 33 35 37 37 35 32 30 30 30 29 28 27 26 26 25 24 25 24 21 20 19 18 17 16 15 15 14 14 13 13 14 14 15 15 15 16 17
40 40 39 37 35 33 31 33 35 36 38 36 34 32 31 31 31 30 29 28 28 28 28 27 26 24 23 21 20 19 19 18 18 17 17 17 17 17 16 17 18 18 18 20
38 39 38 36 34 33 30 30 32 35 36 35 35 34 34 33 31 31 31 30 29 29 29 28 27 26 24 23 23 22 22 21 20 20 20 20 20 19 18 19 19 21 21 22
36 36 35 34 34 33 30 29 31 33 33 34 34 34 34 34 33 33 31 31 31 31 30 30 29 27 25 25 25 24 24 23 22 22 22 23 23 22 22 22 23 24 25 25
35 35 33 33 33 31 30 29 29 30 30 31 31 32 32 33 34 33 33 33 32 31 31 31 30 29 27 26 26 25 25 25 24 24 24 25 24 24 24 25 25 25 26 27
33 33 32 31 31 30 29 28 28 29 29 30 31 31 31 31 31 31 31 31 31 31 31 31 30 28 27 26 26 26 26 26 26 25 25 25 25 25 26 26 25 26 27 29
31 31 31 30 30 30 29 29 29 30 29 28 29 29 29 29 29 29 29 29 28 28 28 28 28 27 26 25 24 25 26 26 27 26 27 26 26 27 27 27 28 29 29 29
29 29 30 31 30 29 28 27 28 28 28 27 27 27 27 27 27 26 26 25 25 26 25 25 25 24 23 23 23 23 24 25 26 26 26 26 27 27 27 28 29 29 29 29

GEFSCGP_500_meanwind_114.txt.gz
Wind_Speed
18 17 16 17 17 17 16 15 15 15 17 18 18 16 15 13 13 13 14 15 16 17 17 17 17 15 14 12 11 9 8 8 9 12 15 16 18 19 19 18 19 18 17 15
19 18 19 19 18 17 16 16 16 17 20 20 19 17 16 15 14 14 14 14 15 16 17 17 17 16 15 13 10 8 7 7 10 12 15 17 19 20 19 18 19 18 18 17
21 21 21 20 18 17 17 17 18 19 21 21 20 18 16 15 14 14 13 14 14 15 16 16 16 15 14 13 11 10 9 9 10 11 12 15 16 18 19 18 19 18 18 17
23 23 22 20 19 18 17 18 19 20 21 21 20 18 15 15 14 13 13 13 13 15 16 16 16 15 14 13 11 8 7 8 10 11 12 14 15 16 17 19 20 19 18 17
23 24 24 21 20 20 18 20 20 21 21 20 19 18 15 14 14 14 14 14 14 15 15 15 15 15 14 12 10 7 6 7 9 11 12 13 14 15 18 19 19 19 19 18
24 25 23 21 21 20 19 20 21 21 20 19 18 17 14 13 13 14 14 15 14 14 14 14 14 14 13 11 9 7 6 6 7 10 11 11 13 15 17 19 20 20 19 19
24 24 22 21 21 20 20 20 21 20 19 17 16 15 13 12 12 12 12 13 12 12 12 12 13 13 12 11 9 7 7 7 8 9 10 11 12 14 16 18 19 20 20 19
24 22 22 21 20 20 20 20 19 19 17 15 14 13 12 11 11 11 11 10 11 10 11 12 13 12 12 11 9 8 7 7 8 8 9 11 12 14 15 16 18 20 21 21
24 23 22 21 20 20 20 19 18 18 17 15 14 13 11 11 11 11 11 10 10 10 10 11 11 11 11 11 9 8 7 8 8 9 10 12 13 14 15 16 17 19 21 21
25 24 24 22 21 20 20 19 18 17 16 15 14 12 12 12 10 10 10 10 10 11 11 11 11 11 11 11 10 8 8 7 8 8 9 11 13 14 15 17 18 18 20 21
24 23 23 23 22 20 20 19 19 18 17 16 15 13 12 12 11 11 12 12 11 11 11 11 11 11 10 10 9 7 7 7 6 7 8 10 11 13 13 15 17 18 19 20
23 22 23 24 24 23 22 20 19 18 17 17 16 15 13 13 12 12 11 11 10 9 10 10 10 10 10 9 9 7 7 7 6 7 7 8 9 12 13 14 15 15 16 18
24 24 23 24 26 25 24 22 22 21 20 20 19 18 15 14 12 12 11 12 11 9 10 10 10 9 9 8 8 8 7 8 7 7 8 8 9 10 12 13 14 14 14 17
27 26 24 24 25 26 25 25 24 24 23 23 22 20 18 16 15 13 12 12 12 12 12 12 11 10 9 9 9 9 8 8 8 8 8 10 11 11 12 12 13 14 15 16
30 29 26 24 25 27 27 27 27 26 26 25 24 23 21 19 17 15 14 14 14 14 14 14 12 12 11 10 10 10 9 9 8 8 9 9 11 11 11 12 12 14 15 16
33 32 30 29 28 28 29 30 30 30 29 28 28 27 25 23 20 19 18 17 17 16 16 16 15 14 13 13 12 11 10 10 9 9 9 10 11 11 11 11 12 13 14 15
35 35 34 33 32 31 32 31 31 31 30 30 29 29 27 25 23 21 21 20 20 19 18 18 18 16 15 14 14 14 13 12 12 11 11 11 11 12 12 12 13 14 15 16
37 37 37 37 35 37 35 33 33 33 32 32 31 30 29 27 25 24 23 23 22 21 20 20 20 19 19 18 17 16 15 15 14 15 14 14 14 14 14 15 15 15 15 15
39 39 40 40 40 40 38 36 35 34 34 33 31 30 29 28 27 25 25 25 24 22 22 22 22 22 21 20 20 19 18 18 18 17 16 16 16 16 16 16 16 16 17 18
38 39 41 42 42 42 40 39 38 37 35 32 31 30 29 28 27 26 26 26 25 24 24 24 24 24 23 23 21 21 21 20 20 20 19 19 19 18 18 18 18 18 19 20
36 38 40 42 42 42 40 39 38 36 34 31 30 30 29 28 27 27 27 26 26 25 25 25 26 25 24 24 23 23 22 23 23 22 22 21 21 20 20 20 21 21 21 22
35 35 37 39 40 39 38 38 36 34 32 31 30 30 29 28 28 27 26 25 25 25 25 26 25 24 24 24 24 24 24 24 24 24 23 22 22 22 22 22 23 23 24 24
33 33 33 35 36 36 35 35 34 32 32 31 30 29 28 27 27 26 26 25 24 25 25 25 25 25 25 26 25 25 25 26 25 24 25 25 25 24 24 24 24 24 24 25
32 32 32 32 32 33 32 32 32 31 30 29 28 27 27 26 26 25 25 25 25 25 24 24 24 25 25 25 26 26 26 27 27 26 25 26 26 25 25 25 25 25 25 26
32 31 31 31 31 32 32 31 30 29 28 28 27 26 26 25 25 25 24 24 24 23 23 23 23 23 23 24 24 25 25 26 27 27 26 26 25 24 25 25 25 26 27 27
32 32 31 31 31 30 30 30 29 28 28 27 26 26 25 25 25 24 23 23 23 23 23 22 22 22 21 21 22 22 23 23 23 23 24 24 25 24 24 24 25 27 28 28

GEFSCGP_500_meanwind_120.txt.gz
Wind_Speed
16 15 15 15 14 13 13 13 12 12 12 11 11 11 12 13 13 13 14 14 14 14 13 13 12 12 11 10 10 9 8 8 9 10 13 13 15 18 19 19 19 18 17 16
18 18 17 17 16 14 14 13 13 14 13 12 11 12 13 14 14 14 14 14 14 13 12 12 12 12 11 10 9 9 8 7 7 9 10 12 13 15 17 18 18 18 17 17
21 20 19 18 17 16 15 14 15 15 13 13 12 12 13 14 14 14 13 13 13 13 12 12 12 11 11 10 10 9 7 7 7 8 9 11 12 14 15 16 17 18 18 18
23 21 20 19 18 17 17 16 16 15 13 13 13 10 13 14 14 14 13 12 12 12 12 12 12 11 11 10 10 9 8 7 7 7 8 10 12 13 14 15 17 17 18 18
23 23 21 20 20 19 18 18 16 15 14 14 14 11 11 14 12 12 12 11 10 10 11 11 11 11 11 10 10 9 9 8 7 7 8 10 11 13 14 15 16 17 18 18
25 23 22 21 21 20 19 17 16 15 14 14 13 12 10 12 12 11 11 10 10 10 10 10 10 10 10 9 8 8 8 7 7 7 8 10 11 12 13 14 16 17 18 19
24 24 23 22 21 20 18 16 15 14 13 13 14 12 12 12 12 11 11 10 10 10 10 9 9 10 9 9 8 9 8 7 7 7 8 10 11 11 12 14 15 16 18 19
23 23 22 21 21 20 18 17 15 13 12 12 15 12 12 12 11 10 9 9 9 9 8 8 9 9 8 8 8 8 7 7 7 8 8 9 11 12 13 14 15 16 17 19
23 23 23 22 21 20 20 18 17 16 15 13 13 13 11 11 10 9 8 8 8 8 8 8 8 7 7 8 8 8 7 7 7 8 8 10 11 12 13 15 15 16 16 18
23 23 23 22 21 21 20 20 19 17 14 12 12 11 10 10 9 8 8 8 8 8 8 8 8 8 8 8 8 8 8 8 7 8 9 9 11 12 13 14 15 16 16 17
23 22 23 22 22 21 21 20 19 17 16 12 10 11 11 10 9 9 9 9 9 9 9 8 9 9 9 9 8 8 7 7 7 8 9 9 10 11 13 14 14 15 16 18
22 22 22 22 22 21 21 20 20 18 17 15 12 12 13 10 9 10 10 10 10 10 10 9 9 10 10 10 9 8 8 8 8 9 9 10 10 11 12 13 14 15 15 16
24 23 21 20 22 22 21 21 20 19 18 16 13 13 15 12 11 11 11 11 11 10 11 11 11 11 10 9 9 8 8 8 9 10 10 11 12 12 13 14 15 16 16 16
26 24 22 18 18 20 20 20 20 19 17 16 15 15 17 14 14 13 13 13 12 11 11 11 12 11 10 10 10 10 10 10 11 11 12 12 12 12 12 13 14 15 15 16
28 27 25 24 24 22 20 20 21 21 19 17 16 17 18 17 16 16 15 14 14 13 12 12 12 12 12 12 12 11 12 12 12 11 11 12 12 13 14 14 15 15 15 16
30 29 27 26 26 24 23 23 23 22 21 20 19 20 20 20 19 17 17 16 16 16 15 15 14 14 14 14 13 13 14 14 14 13 12 12 12 13 14 15 15 16 16 16
32 30 29 26 26 26 26 25 24 24 23 22 21 22 22 21 20 20 19 19 18 18 18 18 17 16 17 16 15 15 15 15 15 15 14 14 14 14 15 15 16 16 16 17
33 31 29 27 28 28 27 27 25 25 25 24 24 23 23 23 22 21 20 20 20 20 20 19 19 19 19 18 18 18 17 16 17 17 17 17 17 16 16 17 17 17 17 17
35 33 31 29 28 28 30 29 26 26 27 26 25 25 24 24 23 22 21 21 21 21 21 21 21 21 21 21 20 19 19 19 19 19 18 18 18 19 18 19 19 19 19 19
35 34 33 33 30 28 30 30 27 27 29 27 26 26 26 25 25 24 23 22 22 22 22 22 22 22 22 22 22 22 22 22 22 22 21 20 21 21 21 21 21 21 22 22
35 35 34 34 32 31 34 32 28 30 30 28 27 27 27 27 26 26 24 24 24 23 23 24 24 24 24 24 24 25 24 24 24 23 23 22 22 23 23 22 23 23 23 23
35 35 35 34 33 33 36 33 32 31 30 30 29 29 28 28 27 27 26 26 25 24 25 25 25 25 26 26 26 26 26 26 26 25 24 24 24 24 24 24 24 24 25 25
36 36 35 36 36 36 35 33 32 32 31 31 30 30 29 29 29 28 27 27 26 25 25 25 25 26 26 27 27 27 27 27 26 26 26 26 27 26 26 27 27 27 27 27
35 35 35 35 35 34 33 32 32 31 31 31 30 30 30 30 29 29 28 27 27 26 25 25 26 26 26 26 26 26 26 26 26 27 27 27 27 27 27 27 27 28 27 27
33 33 33 33 33 32 32 31 31 30 30 30 30 30 29 29 28 27 27 26 27 27 27 27 27 26 26 26 26 26 26 26 27 27 27 27 27 27 27 27 26 26 27 27
33 32 32 32 31 31 30 29 29 29 29 29 29 29 28 28 27 26 26 26 27 27 27 27 27 27 27 26 26 26 25 25 25 25 25 25 25 25 26 26 25 25 25 26

GEFSCGP_500_meanwind_126.txt.gz
Wind_Speed
13 12 10 9 8 8 8 9 9 10 12 13 11 10 11 15 15 16 17 18 17 17 16 16 16 15 14 13 12 11 11 10 8 8 8 9 9 10 11 12 14 15 15 15
15 13 12 11 10 11 11 11 10 10 12 13 11 10 12 15 17 17 18 18 17 16 15 15 15 14 14 13 11 11 11 10 9 8 8 9 9 10 10 11 12 14 15 15
16 12 13 13 12 13 13 11 11 11 13 13 12 12 13 16 15 17 18 18 16 15 14 13 14 14 13 12 11 11 11 11 10 9 8 8 9 10 11 11 12 13 13 14
17 15 16 15 14 14 12 11 13 13 13 12 10 12 15 17 14 17 18 17 16 15 14 13 13 14 13 12 11 11 11 10 10 9 8 8 8 9 10 11 12 13 13 14
18 17 18 17 15 15 14 13 14 14 13 12 10 12 14 16 14 14 17 18 17 15 14 14 13 13 13 12 12 11 10 10 9 9 9 8 8 10 10 11 12 13 14 15
19 19 19 18 17 16 15 15 14 12 12 13 10 11 13 16 14 15 18 18 17 16 15 15 14 13 14 13 12 11 10 9 9 9 8 7 7 9 10 11 11 12 13 14
21 20 20 19 17 16 16 14 12 11 12 12 11 12 14 18 18 19 19 18 17 15 15 15 15 14 14 13 12 11 11 9 9 8 8 7 8 8 9 10 11 12 13 14
21 20 20 20 18 16 16 14 13 11 14 15 12 11 13 16 18 19 18 17 16 16 15 14 14 13 13 12 11 11 10 10 9 9 9 9 9 9 9 10 10 12 13 14
17 17 18 19 18 18 16 16 14 15 15 17 14 11 14 16 17 17 15 16 16 15 14 14 14 14 13 12 12 11 10 10 9 9 10 10 11 10 11 11 12 13 14 15
20 18 17 19 19 18 17 16 16 17 17 16 15 16 18 18 16 15 14 16 15 14 14 14 14 14 13 12 11 11 11 10 10 10 10 10 11 11 11 12 12 13 13 14
24 22 19 19 20 17 17 18 19 18 17 16 17 21 20 18 14 13 15 16 16 15 15 14 13 13 12 12 11 11 10 10 9 10 10 10 11 11 11 12 13 13 14 14
25 24 22 21 20 18 18 17 18 20 20 20 17 22 22 15 12 13 15 17 17 16 15 15 14 14 13 13 12 11 11 10 10 10 10 11 11 12 12 13 13 14 14 15
27 27 25 22 20 20 19 18 18 19 19 18 17 22 20 18 17 17 19 18 17 16 16 16 15 15 14 13 13 12 11 11 11 11 11 12 11 12 13 13 14 15 15 15
29 30 27 22 19 20 20 19 19 20 20 19 19 23 23 24 22 19 18 17 18 18 18 17 16 16 15 15 14 14 13 12 12 12 12 12 13 13 13 14 14 15 15 15
32 31 29 27 23 18 17 19 19 19 20 21 20 23 25 25 25 21 19 19 19 20 20 19 17 17 17 16 16 15 14 14 14 14 13 14 14 14 14 14 14 15 16 16
35 33 30 30 28 22 19 18 18 19 19 21 23 25 27 25 22 20 19 21 20 21 21 20 19 19 19 18 18 18 17 16 16 16 16 15 15 14 14 14 15 16 17 17
35 34 33 30 27 26 27 24 22 21 21 22 25 28 28 27 24 20 19 21 22 22 22 22 21 20 20 20 20 19 19 18 18 18 17 16 16 16 15 16 16 16 18 18
36 35 34 31 28 30 28 25 24 25 24 25 28 31 31 29 26 23 24 24 24 24 24 23 22 22 22 22 21 20 20 20 20 19 19 18 17 17 17 18 18 18 19 18
36 36 35 33 31 30 27 25 26 27 28 28 31 34 33 29 29 29 28 27 26 25 24 24 24 23 23 23 22 22 22 21 21 21 20 19 19 19 19 20 19 19 19 19
37 37 37 35 32 29 27 28 28 29 31 32 34 34 32 29 30 29 27 27 26 25 25 25 25 24 23 23 23 23 23 23 23 22 22 21 22 22 21 21 21 20 20 20
39 39 38 36 35 32 30 32 32 32 33 33 34 33 32 31 29 29 29 28 27 27 26 26 26 25 25 24 24 24 24 23 23 24 24 24 24 24 23 23 22 22 22 22
38 39 39 37 37 34 35 36 37 35 33 32 32 32 32 32 31 31 30 30 29 28 28 27 26 26 26 25 26 25 25 25 25 25 24 24 24 24 24 25 24 24 24 24
35 35 34 35 37 39 38 38 38 37 35 32 33 34 32 32 31 31 31 31 30 30 30 29 28 27 27 26 26 26 26 25 25 26 25 25 25 25 25 25 25 25 25 25
36 37 37 36 38 41 42 41 39 39 38 36 35 35 34 34 33 33 32 32 32 31 31 30 29 29 28 27 27 27 26 26 25 25 25 26 26 26 26 25 25 25 25 26
40 39 40 40 40 40 40 41 41 38 37 36 35 36 35 34 34 33 33 32 32 32 31 30 29 29 28 28 28 27 27 26 26 26 26 26 26 26 26 25 25 25 25 26
39 38 38 40 41 41 40 40 38 37 36 36 35 35 35 35 34 34 33 33 32 31 31 30 29 29 28 28 27 27 28 28 27 26 25 25 25 25 25 24 24 24 25 25